Wetterdaten: Samstag, 21.12.2013
Datum Zeit Temp. Aussen +5cm Feuchte Auss Luftdruck Regen Sonnenschein Regendauer UV Solar Windben
21.12.2013 00:00 4,9 C 3,3 C 86 % 1027,6 hPa 0,0 l/m 0 min 0 min 0,0 UV-I 0 W/m 18,0 km/h (3 Bft)
21.12.2013 00:02 4,9 C 3,3 C 86 % 1027,5 hPa 0,0 l/m 0 min 0 min 0,0 UV-I 0 W/m 0,0 km/h (0 Bft)
21.12.2013 00:06 4,9 C 3,3 C 87 % 1027,6 hPa 0,0 l/m 0 min 0 min 0,0 UV-I 0 W/m 15,4 km/h (3 Bft)
21.12.2013 00:08 4,8 C 3,3 C 87 % 1027,7 hPa 0,0 l/m 0 min 0 min 0,0 UV-I 0 W/m 10,3 km/h (2 Bft)
21.12.2013 00:10 4,8 C 2,8 C 87 % 1027,7 hPa 0,0 l/m 0 min 0 min 0,0 UV-I 0 W/m 23,2 km/h (4 Bft)
21.12.2013 00:12 4,8 C 3,3 C 87 % 1027,7 hPa 0,0 l/m 0 min 0 min 0,0 UV-I 0 W/m 10,3 km/h (2 Bft)
21.12.2013 00:14 4,7 C 2,8 C 87 % 1027,8 hPa 0,0 l/m 0 min 0 min 0,0 UV-I 0 W/m 12,9 km/h (3 Bft)
21.12.2013 00:16 4,7 C 2,8 C 87 % 1027,8 hPa 0,0 l/m 0 min 0 min 0,0 UV-I 0 W/m 12,9 km/h (3 Bft)
21.12.2013 00:18 4,7 C 2,8 C 87 % 1027,8 hPa 0,0 l/m 0 min 0 min 0,0 UV-I 0 W/m 12,9 km/h (3 Bft)
21.12.2013 00:20 4,7 C 2,8 C 87 % 1027,9 hPa 0,0 l/m 0 min 0 min 0,0 UV-I 0 W/m 15,4 km/h (3 Bft)
21.12.2013 00:22 4,7 C 2,8 C 87 % 1028,0 hPa 0,0 l/m 0 min 0 min 0,0 UV-I 0 W/m 7,7 km/h (2 Bft)
21.12.2013 00:24 4,7 C 2,8 C 87 % 1028,1 hPa 0,0 l/m 0 min 0 min 0,0 UV-I 0 W/m 12,9 km/h (3 Bft)
21.12.2013 00:26 4,7 C 2,8 C 87 % 1028,2 hPa 0,0 l/m 0 min 0 min 0,0 UV-I 0 W/m 7,7 km/h (2 Bft)
21.12.2013 00:28 4,7 C 2,8 C 87 % 1028,1 hPa 0,0 l/m 0 min 0 min 0,0 UV-I 0 W/m 10,3 km/h (2 Bft)
21.12.2013 00:30 4,7 C 2,8 C 87 % 1028,1 hPa 0,0 l/m 0 min 0 min 0,0 UV-I 0 W/m 7,7 km/h (2 Bft)
21.12.2013 00:32 4,7 C 2,8 C 87 % 1027,9 hPa 0,0 l/m 0 min 0 min 0,0 UV-I 0 W/m 5,1 km/h (1 Bft)
21.12.2013 00:34 4,6 C 2,8 C 87 % 1027,9 hPa 0,0 l/m 0 min 0 min 0,0 UV-I 0 W/m 15,4 km/h (3 Bft)
21.12.2013 00:36 4,6 C 2,8 C 87 % 1027,9 hPa 0,0 l/m 0 min 0 min 0,0 UV-I 0 W/m 2,6 km/h (1 Bft)
21.12.2013 00:38 4,6 C 2,8 C 87 % 1028,0 hPa 0,0 l/m 0 min 0 min 0,0 UV-I 0 W/m 15,4 km/h (3 Bft)
21.12.2013 00:40 4,7 C 2,8 C 88 % 1027,8 hPa 0,0 l/m 0 min 0 min 0,0 UV-I 0 W/m 18,0 km/h (3 Bft)
21.12.2013 00:42 4,7 C 2,8 C 87 % 1027,8 hPa 0,0 l/m 0 min 0 min 0,0 UV-I 0 W/m 18,0 km/h (3 Bft)
21.12.2013 00:44 4,7 C 3,3 C 87 % 1027,8 hPa 0,0 l/m 0 min 0 min 0,0 UV-I 0 W/m 12,9 km/h (3 Bft)
21.12.2013 00:46 4,7 C 3,3 C 87 % 1027,7 hPa 0,0 l/m 0 min 0 min 0,0 UV-I 0 W/m 10,3 km/h (2 Bft)
21.12.2013 00:48 4,7 C 2,8 C 87 % 1027,7 hPa 0,0 l/m 0 min 0 min 0,0 UV-I 0 W/m 23,2 km/h (4 Bft)
21.12.2013 00:50 4,7 C 2,8 C 87 % 1027,7 hPa 0,0 l/m 0 min 0 min 0,0 UV-I 0 W/m 10,3 km/h (2 Bft)
21.12.2013 00:52 4,6 C 2,8 C 87 % 1027,8 hPa 0,0 l/m 0 min 0 min 0,0 UV-I 0 W/m 12,9 km/h (3 Bft)
21.12.2013 00:54 4,6 C 2,8 C 87 % 1027,9 hPa 0,0 l/m 0 min 0 min 0,0 UV-I 0 W/m 7,7 km/h (2 Bft)
21.12.2013 00:56 4,6 C 2,8 C 87 % 1027,8 hPa 0,0 l/m 0 min 0 min 0,0 UV-I 0 W/m 5,1 km/h (1 Bft)
21.12.2013 00:58 4,5 C 2,8 C 87 % 1027,8 hPa 0,0 l/m 0 min 0 min 0,0 UV-I 0 W/m 5,1 km/h (1 Bft)
21.12.2013 01:00 4,4 C 2,8 C 87 % 1027,8 hPa 0,0 l/m 0 min 0 min 0,0 UV-I 0 W/m 5,1 km/h (1 Bft)
21.12.2013 01:02 4,4 C 2,8 C 87 % 1027,8 hPa 0,0 l/m 0 min 0 min 0,0 UV-I 0 W/m 7,7 km/h (2 Bft)
21.12.2013 01:06 4,3 C 2,8 C 88 % 1027,7 hPa 0,0 l/m 0 min 0 min 0,0 UV-I 0 W/m 15,4 km/h (3 Bft)
21.12.2013 01:08 4,3 C 2,8 C 88 % 1027,7 hPa 0,0 l/m 0 min 0 min 0,0 UV-I 0 W/m 12,9 km/h (3 Bft)
21.12.2013 01:10 4,3 C 2,8 C 88 % 1027,7 hPa 0,0 l/m 0 min 0 min 0,0 UV-I 0 W/m 5,1 km/h (1 Bft)
21.12.2013 01:12 4,3 C 2,8 C 88 % 1027,6 hPa 0,0 l/m 0 min 0 min 0,0 UV-I 0 W/m 10,3 km/h (2 Bft)
21.12.2013 01:14 4,3 C 2,8 C 88 % 1027,6 hPa 0,0 l/m 0 min 0 min 0,0 UV-I 0 W/m 7,7 km/h (2 Bft)
21.12.2013 01:16 4,3 C 2,2 C 88 % 1027,5 hPa 0,0 l/m 0 min 0 min 0,0 UV-I 0 W/m 15,4 km/h (3 Bft)
21.12.2013 01:18 4,3 C 2,8 C 88 % 1027,5 hPa 0,0 l/m 0 min 0 min 0,0 UV-I 0 W/m 15,4 km/h (3 Bft)
21.12.2013 01:20 4,3 C 2,8 C 88 % 1027,4 hPa 0,0 l/m 0 min 0 min 0,0 UV-I 0 W/m 7,7 km/h (2 Bft)
21.12.2013 01:22 4,3 C 2,8 C 88 % 1027,4 hPa 0,0 l/m 0 min 0 min 0,0 UV-I 0 W/m 12,9 km/h (3 Bft)
21.12.2013 01:24 4,3 C 2,8 C 88 % 1027,4 hPa 0,0 l/m 0 min 0 min 0,0 UV-I 0 W/m 10,3 km/h (2 Bft)
21.12.2013 01:26 4,3 C 2,8 C 88 % 1027,4 hPa 0,0 l/m 0 min 0 min 0,0 UV-I 0 W/m 10,3 km/h (2 Bft)
21.12.2013 01:28 4,3 C 2,8 C 88 % 1027,4 hPa 0,0 l/m 0 min 0 min 0,0 UV-I 0 W/m 7,7 km/h (2 Bft)
21.12.2013 01:30 4,3 C 2,8 C 88 % 1027,4 hPa 0,0 l/m 0 min 0 min 0,0 UV-I 0 W/m 15,4 km/h (3 Bft)
21.12.2013 01:32 4,4 C 2,8 C 88 % 1027,4 hPa 0,0 l/m 0 min 0 min 0,0 UV-I 0 W/m 20,6 km/h (4 Bft)
21.12.2013 01:34 4,4 C 3,3 C 88 % 1027,5 hPa 0,0 l/m 0 min 0 min 0,0 UV-I 0 W/m 10,3 km/h (2 Bft)
21.12.2013 01:36 4,5 C 3,3 C 87 % 1027,4 hPa 0,0 l/m 0 min 0 min 0,0 UV-I 0 W/m 10,3 km/h (2 Bft)
21.12.2013 01:38 4,6 C 3,3 C 87 % 1027,5 hPa 0,0 l/m 0 min 0 min 0,0 UV-I 0 W/m 12,9 km/h (3 Bft)
21.12.2013 01:40 4,6 C 3,3 C 87 % 1027,5 hPa 0,0 l/m 0 min 0 min 0,0 UV-I 0 W/m 15,4 km/h (3 Bft)
21.12.2013 01:42 4,6 C 3,3 C 87 % 1027,5 hPa 0,0 l/m 0 min 0 min 0,0 UV-I 0 W/m 18,0 km/h (3 Bft)
21.12.2013 01:44 4,7 C 3,3 C 87 % 1027,4 hPa 0,0 l/m 0 min 0 min 0,0 UV-I 0 W/m 7,7 km/h (2 Bft)
21.12.2013 01:46 4,7 C 3,3 C 87 % 1027,4 hPa 0,0 l/m 0 min 0 min 0,0 UV-I 0 W/m 15,4 km/h (3 Bft)
21.12.2013 01:48 4,8 C 3,3 C 86 % 1027,4 hPa 0,0 l/m 0 min 0 min 0,0 UV-I 0 W/m 7,7 km/h (2 Bft)
21.12.2013 01:50 4,8 C 3,3 C 86 % 1027,4 hPa 0,0 l/m 0 min 0 min 0,0 UV-I 0 W/m 15,4 km/h (3 Bft)
21.12.2013 01:52 4,9 C 3,3 C 86 % 1027,4 hPa 0,0 l/m 0 min 0 min 0,0 UV-I 0 W/m 20,6 km/h (4 Bft)
21.12.2013 01:54 4,9 C 3,3 C 86 % 1027,3 hPa 0,0 l/m 0 min 0 min 0,0 UV-I 0 W/m 10,3 km/h (2 Bft)
21.12.2013 01:56 4,9 C 3,3 C 85 % 1027,3 hPa 0,0 l/m 0 min 0 min 0,0 UV-I 0 W/m 12,9 km/h (3 Bft)
21.12.2013 01:58 4,9 C 3,3 C 85 % 1027,3 hPa 0,0 l/m 0 min 0 min 0,0 UV-I 0 W/m 7,7 km/h (2 Bft)
21.12.2013 02:00 5,0 C 3,3 C 85 % 1027,2 hPa 0,0 l/m 0 min 0 min 0,0 UV-I 0 W/m 18,0 km/h (3 Bft)
21.12.2013 02:02 5,0 C 3,3 C 85 % 1027,2 hPa 0,0 l/m 0 min 0 min 0,0 UV-I 0 W/m 18,0 km/h (3 Bft)
21.12.2013 02:06 5,1 C 3,3 C 85 % 1027,2 hPa 0,0 l/m 0 min 0 min 0,0 UV-I 0 W/m 12,9 km/h (3 Bft)
21.12.2013 02:08 5,1 C 3,3 C 84 % 1027,3 hPa 0,0 l/m 0 min 0 min 0,0 UV-I 0 W/m 12,9 km/h (3 Bft)
21.12.2013 02:10 5,1 C 3,3 C 84 % 1027,2 hPa 0,0 l/m 0 min 0 min 0,0 UV-I 0 W/m 15,4 km/h (3 Bft)
21.12.2013 02:12 5,1 C 3,9 C 84 % 1027,3 hPa 0,0 l/m 0 min 0 min 0,0 UV-I 0 W/m 12,9 km/h (3 Bft)
21.12.2013 02:14 5,1 C 3,9 C 84 % 1027,3 hPa 0,0 l/m 0 min 0 min 0,0 UV-I 0 W/m 0,0 km/h (0 Bft)
21.12.2013 02:16 5,1 C 3,9 C 84 % 1027,2 hPa 0,0 l/m 0 min 0 min 0,0 UV-I 0 W/m 20,6 km/h (4 Bft)
21.12.2013 02:18 5,2 C 3,9 C 84 % 1027,2 hPa 0,0 l/m 0 min 0 min 0,0 UV-I 0 W/m 12,9 km/h (3 Bft)
21.12.2013 02:20 5,2 C 3,9 C 84 % 1027,2 hPa 0,0 l/m 0 min 0 min 0,0 UV-I 0 W/m 15,4 km/h (3 Bft)
21.12.2013 02:22 5,2 C 3,9 C 84 % 1027,1 hPa 0,0 l/m 0 min 0 min 0,0 UV-I 0 W/m 7,7 km/h (2 Bft)
21.12.2013 02:24 5,2 C 3,9 C 84 % 1027,1 hPa 0,0 l/m 0 min 0 min 0,0 UV-I 0 W/m 15,4 km/h (3 Bft)
21.12.2013 02:26 5,2 C 3,9 C 84 % 1027,0 hPa 0,0 l/m 0 min 0 min 0,0 UV-I 0 W/m 23,2 km/h (4 Bft)
21.12.2013 02:28 5,3 C 3,9 C 84 % 1027,0 hPa 0,0 l/m 0 min 0 min 0,0 UV-I 0 W/m 20,6 km/h (4 Bft)
21.12.2013 02:30 5,3 C 3,9 C 83 % 1027,1 hPa 0,0 l/m 0 min 0 min 0,0 UV-I 0 W/m 15,4 km/h (3 Bft)
21.12.2013 02:32 5,3 C 3,9 C 83 % 1027,1 hPa 0,0 l/m 0 min 0 min 0,0 UV-I 0 W/m 12,9 km/h (3 Bft)
21.12.2013 02:34 5,3 C 3,9 C 83 % 1027,0 hPa 0,0 l/m 0 min 0 min 0,0 UV-I 0 W/m 12,9 km/h (3 Bft)
21.12.2013 02:36 5,3 C 3,9 C 83 % 1027,0 hPa 0,0 l/m 0 min 0 min 0,0 UV-I 0 W/m 10,3 km/h (2 Bft)
21.12.2013 02:38 5,4 C 3,9 C 83 % 1027,0 hPa 0,0 l/m 0 min 0 min 0,0 UV-I 0 W/m 20,6 km/h (4 Bft)
21.12.2013 02:40 5,4 C 3,9 C 83 % 1026,9 hPa 0,0 l/m 0 min 0 min 0,0 UV-I 0 W/m 18,0 km/h (3 Bft)
21.12.2013 02:42 5,4 C 3,9 C 83 % 1027,1 hPa 0,0 l/m 0 min 0 min 0,0 UV-I 0 W/m 15,4 km/h (3 Bft)
21.12.2013 02:44 5,4 C 3,9 C 83 % 1027,1 hPa 0,0 l/m 0 min 0 min 0,0 UV-I 0 W/m 18,0 km/h (3 Bft)
21.12.2013 02:46 5,4 C 3,9 C 82 % 1027,1 hPa 0,0 l/m 0 min 0 min 0,0 UV-I 0 W/m 12,9 km/h (3 Bft)
21.12.2013 02:48 5,4 C 3,9 C 82 % 1027,0 hPa 0,0 l/m 0 min 0 min 0,0 UV-I 0 W/m 23,2 km/h (4 Bft)
21.12.2013 02:50 5,5 C 4,4 C 82 % 1027,1 hPa 0,0 l/m 0 min 0 min 0,0 UV-I 0 W/m 20,6 km/h (4 Bft)
21.12.2013 02:52 5,5 C 3,9 C 82 % 1026,9 hPa 0,0 l/m 0 min 0 min 0,0 UV-I 0 W/m 7,7 km/h (2 Bft)
21.12.2013 02:54 5,5 C 3,9 C 82 % 1027,1 hPa 0,0 l/m 0 min 0 min 0,0 UV-I 0 W/m 18,0 km/h (3 Bft)
21.12.2013 02:56 5,5 C 3,9 C 82 % 1027,1 hPa 0,0 l/m 0 min 0 min 0,0 UV-I 0 W/m 20,6 km/h (4 Bft)
21.12.2013 02:58 5,6 C 4,4 C 82 % 1027,0 hPa 0,0 l/m 0 min 0 min 0,0 UV-I 0 W/m 12,9 km/h (3 Bft)
21.12.2013 03:00 5,6 C 4,4 C 82 % 1027,0 hPa 0,0 l/m 0 min 0 min 0,0 UV-I 0 W/m 20,6 km/h (4 Bft)
21.12.2013 03:02 5,6 C 4,4 C 81 % 1027,0 hPa 0,0 l/m 0 min 0 min 0,0 UV-I 0 W/m 15,4 km/h (3 Bft)
21.12.2013 03:06 5,6 C 4,4 C 81 % 1027,0 hPa 0,0 l/m 0 min 0 min 0,0 UV-I 0 W/m 15,4 km/h (3 Bft)
21.12.2013 03:08 5,6 C 4,4 C 81 % 1027,0 hPa 0,0 l/m 0 min 0 min 0,0 UV-I 0 W/m 15,4 km/h (3 Bft)
21.12.2013 03:10 5,6 C 4,4 C 81 % 1027,0 hPa 0,0 l/m 0 min 0 min 0,0 UV-I 0 W/m 20,6 km/h (4 Bft)
21.12.2013 03:12 5,6 C 4,4 C 81 % 1027,1 hPa 0,0 l/m 0 min 0 min 0,0 UV-I 0 W/m 15,4 km/h (3 Bft)
21.12.2013 03:14 5,6 C 4,4 C 81 % 1027,0 hPa 0,0 l/m 0 min 0 min 0,0 UV-I 0 W/m 15,4 km/h (3 Bft)
21.12.2013 03:16 5,7 C 4,4 C 81 % 1027,1 hPa 0,0 l/m 0 min 0 min 0,0 UV-I 0 W/m 18,0 km/h (3 Bft)
21.12.2013 03:18 5,7 C 4,4 C 81 % 1027,0 hPa 0,0 l/m 0 min 0 min 0,0 UV-I 0 W/m 18,0 km/h (3 Bft)
21.12.2013 03:20 5,7 C 4,4 C 81 % 1027,0 hPa 0,0 l/m 0 min 0 min 0,0 UV-I 0 W/m 15,4 km/h (3 Bft)
21.12.2013 03:22 5,7 C 4,4 C 81 % 1027,0 hPa 0,0 l/m 0 min 0 min 0,0 UV-I 0 W/m 23,2 km/h (4 Bft)
21.12.2013 03:24 5,7 C 4,4 C 80 % 1027,1 hPa 0,0 l/m 0 min 0 min 0,0 UV-I 0 W/m 18,0 km/h (3 Bft)
21.12.2013 03:26 5,7 C 4,4 C 80 % 1027,0 hPa 0,0 l/m 0 min 0 min 0,0 UV-I 0 W/m 20,6 km/h (4 Bft)
21.12.2013 03:28 5,7 C 4,4 C 80 % 1026,9 hPa 0,0 l/m 0 min 0 min 0,0 UV-I 0 W/m 10,3 km/h (2 Bft)
21.12.2013 03:30 5,8 C 4,4 C 80 % 1027,0 hPa 0,0 l/m 0 min 0 min 0,0 UV-I 0 W/m 12,9 km/h (3 Bft)
21.12.2013 03:32 5,8 C 4,4 C 80 % 1027,1 hPa 0,0 l/m 0 min 0 min 0,0 UV-I 0 W/m 15,4 km/h (3 Bft)
21.12.2013 03:34 5,8 C 4,4 C 80 % 1027,0 hPa 0,0 l/m 0 min 0 min 0,0 UV-I 0 W/m 15,4 km/h (3 Bft)
21.12.2013 03:36 5,8 C 4,4 C 80 % 1027,2 hPa 0,0 l/m 0 min 0 min 0,0 UV-I 0 W/m 28,3 km/h (4 Bft)
21.12.2013 03:38 5,8 C 4,4 C 80 % 1027,0 hPa 0,0 l/m 0 min 0 min 0,0 UV-I 0 W/m 10,3 km/h (2 Bft)
21.12.2013 03:40 5,8 C 4,4 C 80 % 1027,0 hPa 0,0 l/m 0 min 0 min 0,0 UV-I 0 W/m 18,0 km/h (3 Bft)
21.12.2013 03:42 5,8 C 4,4 C 80 % 1027,1 hPa 0,0 l/m 0 min 0 min 0,0 UV-I 0 W/m 20,6 km/h (4 Bft)
21.12.2013 03:44 5,8 C 4,4 C 80 % 1027,0 hPa 0,0 l/m 0 min 0 min 0,0 UV-I 0 W/m 18,0 km/h (3 Bft)
21.12.2013 03:46 5,8 C 4,4 C 80 % 1027,0 hPa 0,0 l/m 0 min 0 min 0,0 UV-I 0 W/m 7,7 km/h (2 Bft)
21.12.2013 03:48 5,8 C 4,4 C 80 % 1026,9 hPa 0,0 l/m 0 min 0 min 0,0 UV-I 0 W/m 12,9 km/h (3 Bft)
21.12.2013 03:50 5,8 C 4,4 C 80 % 1027,0 hPa 0,0 l/m 0 min 0 min 0,0 UV-I 0 W/m 15,4 km/h (3 Bft)
21.12.2013 03:52 5,8 C 4,4 C 80 % 1027,1 hPa 0,0 l/m 0 min 0 min 0,0 UV-I 0 W/m 23,2 km/h (4 Bft)
21.12.2013 03:54 5,9 C 4,4 C 80 % 1026,9 hPa 0,0 l/m 0 min 0 min 0,0 UV-I 0 W/m 12,9 km/h (3 Bft)
21.12.2013 03:56 5,9 C 4,4 C 80 % 1027,0 hPa 0,0 l/m 0 min 0 min 0,0 UV-I 0 W/m 18,0 km/h (3 Bft)
21.12.2013 03:58 5,9 C 4,4 C 80 % 1026,9 hPa 0,0 l/m 0 min 0 min 0,0 UV-I 0 W/m 15,4 km/h (3 Bft)
21.12.2013 04:00 5,9 C 4,4 C 80 % 1026,7 hPa 0,0 l/m 0 min 0 min 0,0 UV-I 0 W/m 12,9 km/h (3 Bft)
21.12.2013 04:02 5,9 C 4,4 C 80 % 1026,9 hPa 0,0 l/m 0 min 0 min 0,0 UV-I 0 W/m 20,6 km/h (4 Bft)
21.12.2013 04:06 5,9 C 4,4 C 80 % 1026,7 hPa 0,0 l/m 0 min 0 min 0,0 UV-I 0 W/m 23,2 km/h (4 Bft)
21.12.2013 04:08 5,9 C 4,4 C 79 % 1027,0 hPa 0,0 l/m 0 min 0 min 0,0 UV-I 0 W/m 33,5 km/h (5 Bft)
21.12.2013 04:10 5,9 C 4,4 C 79 % 1026,7 hPa 0,0 l/m 0 min 0 min 0,0 UV-I 0 W/m 12,9 km/h (3 Bft)
21.12.2013 04:12 5,9 C 4,4 C 79 % 1026,7 hPa 0,0 l/m 0 min 0 min 0,0 UV-I 0 W/m 25,7 km/h (4 Bft)
21.12.2013 04:14 5,9 C 4,4 C 79 % 1026,8 hPa 0,0 l/m 0 min 0 min 0,0 UV-I 0 W/m 12,9 km/h (3 Bft)
21.12.2013 04:16 6,0 C 4,4 C 79 % 1027,0 hPa 0,0 l/m 0 min 0 min 0,0 UV-I 0 W/m 28,3 km/h (4 Bft)
21.12.2013 04:18 6,0 C 4,4 C 79 % 1026,8 hPa 0,0 l/m 0 min 0 min 0,0 UV-I 0 W/m 23,2 km/h (4 Bft)
21.12.2013 04:20 6,0 C 4,4 C 79 % 1026,8 hPa 0,0 l/m 0 min 0 min 0,0 UV-I 0 W/m 18,0 km/h (3 Bft)
21.12.2013 04:22 6,0 C 4,4 C 79 % 1026,8 hPa 0,0 l/m 0 min 0 min 0,0 UV-I 0 W/m 12,9 km/h (3 Bft)
21.12.2013 04:24 6,0 C 4,4 C 79 % 1026,9 hPa 0,0 l/m 0 min 0 min 0,0 UV-I 0 W/m 7,7 km/h (2 Bft)
21.12.2013 04:26 6,0 C 4,4 C 79 % 1026,8 hPa 0,0 l/m 0 min 0 min 0,0 UV-I 0 W/m 12,9 km/h (3 Bft)
21.12.2013 04:28 6,0 C 4,4 C 79 % 1026,8 hPa 0,0 l/m 0 min 0 min 0,0 UV-I 0 W/m 15,4 km/h (3 Bft)
21.12.2013 04:30 6,0 C 4,4 C 79 % 1026,9 hPa 0,0 l/m 0 min 0 min 0,0 UV-I 0 W/m 20,6 km/h (4 Bft)
21.12.2013 04:32 6,0 C 4,4 C 79 % 1026,8 hPa 0,0 l/m 0 min 0 min 0,0 UV-I 0 W/m 18,0 km/h (3 Bft)
21.12.2013 04:34 6,0 C 4,4 C 79 % 1026,8 hPa 0,0 l/m 0 min 0 min 0,0 UV-I 0 W/m 18,0 km/h (3 Bft)
21.12.2013 04:36 6,0 C 4,4 C 79 % 1026,8 hPa 0,0 l/m 0 min 0 min 0,0 UV-I 0 W/m 30,9 km/h (5 Bft)
21.12.2013 04:38 6,0 C 4,4 C 79 % 1026,8 hPa 0,0 l/m 0 min 0 min 0,0 UV-I 0 W/m 30,9 km/h (5 Bft)
21.12.2013 04:40 6,1 C 4,4 C 79 % 1026,7 hPa 0,0 l/m 0 min 0 min 0,0 UV-I 0 W/m 15,4 km/h (3 Bft)
21.12.2013 04:42 6,1 C 4,4 C 79 % 1026,6 hPa 0,0 l/m 0 min 0 min 0,0 UV-I 0 W/m 12,9 km/h (3 Bft)
21.12.2013 04:44 6,1 C 4,4 C 79 % 1026,7 hPa 0,0 l/m 0 min 0 min 0,0 UV-I 0 W/m 23,2 km/h (4 Bft)
21.12.2013 04:46 6,1 C 4,4 C 79 % 1026,5 hPa 0,0 l/m 0 min 0 min 0,0 UV-I 0 W/m 15,4 km/h (3 Bft)
21.12.2013 04:48 6,1 C 4,4 C 79 % 1026,7 hPa 0,0 l/m 0 min 0 min 0,0 UV-I 0 W/m 10,3 km/h (2 Bft)
21.12.2013 04:50 6,1 C 4,4 C 79 % 1026,7 hPa 0,0 l/m 0 min 0 min 0,0 UV-I 0 W/m 25,7 km/h (4 Bft)
21.12.2013 04:52 6,1 C 4,4 C 79 % 1026,7 hPa 0,0 l/m 0 min 0 min 0,0 UV-I 0 W/m 23,2 km/h (4 Bft)
21.12.2013 04:54 6,1 C 4,4 C 79 % 1026,7 hPa 0,0 l/m 0 min 0 min 0,0 UV-I 0 W/m 18,0 km/h (3 Bft)
21.12.2013 04:56 6,1 C 4,4 C 79 % 1026,6 hPa 0,0 l/m 0 min 0 min 0,0 UV-I 0 W/m 12,9 km/h (3 Bft)
21.12.2013 04:58 6,2 C 4,4 C 79 % 1026,7 hPa 0,0 l/m 0 min 0 min 0,0 UV-I 0 W/m 20,6 km/h (4 Bft)
21.12.2013 05:00 6,2 C 4,4 C 79 % 1026,6 hPa 0,0 l/m 0 min 0 min 0,0 UV-I 0 W/m 20,6 km/h (4 Bft)
21.12.2013 05:02 6,2 C 4,4 C 79 % 1026,8 hPa 0,0 l/m 0 min 0 min 0,0 UV-I 0 W/m 23,2 km/h (4 Bft)
21.12.2013 05:06 6,2 C 4,4 C 79 % 1026,4 hPa 0,0 l/m 0 min 0 min 0,0 UV-I 0 W/m 23,2 km/h (4 Bft)
21.12.2013 05:08 6,2 C 4,4 C 79 % 1026,5 hPa 0,0 l/m 0 min 0 min 0,0 UV-I 0 W/m 12,9 km/h (3 Bft)
21.12.2013 05:10 6,2 C 4,4 C 80 % 1026,5 hPa 0,0 l/m 0 min 0 min 0,0 UV-I 0 W/m 7,7 km/h (2 Bft)
21.12.2013 05:12 6,2 C 4,4 C 80 % 1026,5 hPa 0,0 l/m 0 min 0 min 0,0 UV-I 0 W/m 18,0 km/h (3 Bft)
21.12.2013 05:14 6,2 C 4,4 C 80 % 1026,4 hPa 0,0 l/m 0 min 0 min 0,0 UV-I 0 W/m 18,0 km/h (3 Bft)
21.12.2013 05:16 6,2 C 4,4 C 80 % 1026,3 hPa 0,0 l/m 0 min 0 min 0,0 UV-I 0 W/m 15,4 km/h (3 Bft)
21.12.2013 05:18 6,2 C 4,4 C 80 % 1026,4 hPa 0,0 l/m 0 min 0 min 0,0 UV-I 0 W/m 18,0 km/h (3 Bft)
21.12.2013 05:20 6,2 C 4,4 C 80 % 1026,4 hPa 0,0 l/m 0 min 0 min 0,0 UV-I 0 W/m 20,6 km/h (4 Bft)
21.12.2013 05:22 6,2 C 4,4 C 80 % 1026,2 hPa 0,0 l/m 0 min 0 min 0,0 UV-I 0 W/m 20,6 km/h (4 Bft)
21.12.2013 05:24 6,2 C 4,4 C 80 % 1026,2 hPa 0,0 l/m 0 min 0 min 0,0 UV-I 0 W/m 20,6 km/h (4 Bft)
21.12.2013 05:26 6,2 C 4,4 C 79 % 1026,2 hPa 0,0 l/m 0 min 0 min 0,0 UV-I 0 W/m 18,0 km/h (3 Bft)
21.12.2013 05:28 6,2 C 4,4 C 79 % 1026,1 hPa 0,0 l/m 0 min 0 min 0,0 UV-I 0 W/m 7,7 km/h (2 Bft)
21.12.2013 05:30 6,2 C 4,4 C 80 % 1026,1 hPa 0,0 l/m 0 min 0 min 0,0 UV-I 0 W/m 12,9 km/h (3 Bft)
21.12.2013 05:32 6,2 C 4,4 C 80 % 1026,2 hPa 0,0 l/m 0 min 0 min 0,0 UV-I 0 W/m 18,0 km/h (3 Bft)
21.12.2013 05:34 6,2 C 4,4 C 80 % 1026,1 hPa 0,0 l/m 0 min 0 min 0,0 UV-I 0 W/m 10,3 km/h (2 Bft)
21.12.2013 05:36 6,2 C 4,4 C 80 % 1026,1 hPa 0,0 l/m 0 min 0 min 0,0 UV-I 0 W/m 2,6 km/h (1 Bft)
21.12.2013 05:38 6,2 C 4,4 C 80 % 1026,1 hPa 0,0 l/m 0 min 0 min 0,0 UV-I 0 W/m 20,6 km/h (4 Bft)
21.12.2013 05:40 6,2 C 4,4 C 80 % 1026,2 hPa 0,0 l/m 0 min 0 min 0,0 UV-I 0 W/m 15,4 km/h (3 Bft)
21.12.2013 05:42 6,2 C 4,4 C 80 % 1026,1 hPa 0,0 l/m 0 min 0 min 0,0 UV-I 0 W/m 20,6 km/h (4 Bft)
21.12.2013 05:44 6,1 C 4,4 C 80 % 1026,2 hPa 0,0 l/m 0 min 0 min 0,0 UV-I 0 W/m 15,4 km/h (3 Bft)
21.12.2013 05:46 6,1 C 4,4 C 80 % 1026,1 hPa 0,0 l/m 0 min 0 min 0,0 UV-I 0 W/m 15,4 km/h (3 Bft)
21.12.2013 05:48 6,1 C 4,4 C 80 % 1026,1 hPa 0,0 l/m 0 min 0 min 0,0 UV-I 0 W/m 15,4 km/h (3 Bft)
21.12.2013 05:50 6,1 C 4,4 C 80 % 1026,0 hPa 0,0 l/m 0 min 0 min 0,0 UV-I 0 W/m 15,4 km/h (3 Bft)
21.12.2013 05:52 6,1 C 4,4 C 80 % 1025,9 hPa 0,0 l/m 0 min 0 min 0,0 UV-I 0 W/m 5,1 km/h (1 Bft)
21.12.2013 05:54 6,1 C 4,4 C 80 % 1026,0 hPa 0,0 l/m 0 min 0 min 0,0 UV-I 0 W/m 15,4 km/h (3 Bft)
21.12.2013 05:56 6,1 C 4,4 C 80 % 1025,9 hPa 0,0 l/m 0 min 0 min 0,0 UV-I 0 W/m 15,4 km/h (3 Bft)
21.12.2013 05:58 6,1 C 4,4 C 80 % 1026,0 hPa 0,0 l/m 0 min 0 min 0,0 UV-I 0 W/m 15,4 km/h (3 Bft)
21.12.2013 06:00 6,1 C 4,4 C 80 % 1025,9 hPa 0,0 l/m 0 min 0 min 0,0 UV-I 0 W/m 5,1 km/h (1 Bft)
21.12.2013 06:02 6,1 C 4,4 C 80 % 1025,9 hPa 0,0 l/m 0 min 0 min 0,0 UV-I 0 W/m 12,9 km/h (3 Bft)
21.12.2013 06:04 6,1 C 4,4 C 80 % 1025,9 hPa 0,0 l/m 0 min 0 min 0,0 UV-I 0 W/m 25,7 km/h (4 Bft)
21.12.2013 06:06 6,1 C 4,4 C 80 % 1025,9 hPa 0,0 l/m 0 min 0 min 0,0 UV-I 0 W/m 30,9 km/h (5 Bft)
21.12.2013 06:08 6,1 C 4,4 C 80 % 1025,9 hPa 0,0 l/m 0 min 0 min 0,0 UV-I 0 W/m 7,7 km/h (2 Bft)
21.12.2013 06:10 6,1 C 4,4 C 80 % 1026,0 hPa 0,0 l/m 0 min 0 min 0,0 UV-I 0 W/m 7,7 km/h (2 Bft)
21.12.2013 06:12 6,1 C 4,4 C 80 % 1026,0 hPa 0,0 l/m 0 min 0 min 0,0 UV-I 0 W/m 15,4 km/h (3 Bft)
21.12.2013 06:14 6,1 C 4,4 C 80 % 1025,9 hPa 0,0 l/m 0 min 0 min 0,0 UV-I 0 W/m 10,3 km/h (2 Bft)
21.12.2013 06:16 6,1 C 4,4 C 80 % 1025,9 hPa 0,0 l/m 0 min 0 min 0,0 UV-I 0 W/m 15,4 km/h (3 Bft)
21.12.2013 06:18 6,1 C 4,4 C 80 % 1025,9 hPa 0,0 l/m 0 min 0 min 0,0 UV-I 0 W/m 12,9 km/h (3 Bft)
21.12.2013 06:20 6,0 C 4,4 C 80 % 1025,9 hPa 0,0 l/m 0 min 0 min 0,0 UV-I 0 W/m 18,0 km/h (3 Bft)
21.12.2013 06:22 6,0 C 4,4 C 80 % 1025,9 hPa 0,0 l/m 0 min 0 min 0,0 UV-I 0 W/m 12,9 km/h (3 Bft)
21.12.2013 06:24 6,0 C 4,4 C 81 % 1025,9 hPa 0,0 l/m 0 min 0 min 0,0 UV-I 0 W/m 10,3 km/h (2 Bft)
21.12.2013 06:26 6,0 C 4,4 C 81 % 1025,8 hPa 0,0 l/m 0 min 0 min 0,0 UV-I 0 W/m 10,3 km/h (2 Bft)
21.12.2013 06:28 6,0 C 4,4 C 81 % 1025,7 hPa 0,0 l/m 0 min 0 min 0,0 UV-I 0 W/m 10,3 km/h (2 Bft)
21.12.2013 06:30 6,0 C 4,4 C 81 % 1025,7 hPa 0,0 l/m 0 min 0 min 0,0 UV-I 0 W/m 15,4 km/h (3 Bft)
21.12.2013 06:32 6,0 C 4,4 C 81 % 1025,9 hPa 0,0 l/m 0 min 0 min 0,0 UV-I 0 W/m 12,9 km/h (3 Bft)
21.12.2013 06:34 6,0 C 4,4 C 81 % 1025,8 hPa 0,0 l/m 0 min 0 min 0,0 UV-I 0 W/m 12,9 km/h (3 Bft)
21.12.2013 06:36 6,0 C 4,4 C 81 % 1025,6 hPa 0,0 l/m 0 min 0 min 0,0 UV-I 0 W/m 15,4 km/h (3 Bft)
21.12.2013 06:38 6,0 C 4,4 C 81 % 1025,6 hPa 0,0 l/m 0 min 0 min 0,0 UV-I 0 W/m 12,9 km/h (3 Bft)
21.12.2013 06:40 6,0 C 4,4 C 81 % 1025,6 hPa 0,0 l/m 0 min 0 min 0,0 UV-I 0 W/m 18,0 km/h (3 Bft)
21.12.2013 06:42 6,0 C 4,4 C 81 % 1025,5 hPa 0,0 l/m 0 min 0 min 0,0 UV-I 0 W/m 15,4 km/h (3 Bft)
21.12.2013 06:44 6,1 C 4,4 C 81 % 1025,5 hPa 0,0 l/m 0 min 0 min 0,0 UV-I 0 W/m 15,4 km/h (3 Bft)
21.12.2013 06:46 6,1 C 4,4 C 81 % 1025,4 hPa 0,0 l/m 0 min 0 min 0,0 UV-I 0 W/m 15,4 km/h (3 Bft)
21.12.2013 06:48 6,1 C 5,0 C 81 % 1025,4 hPa 0,0 l/m 0 min 0 min 0,0 UV-I 0 W/m 18,0 km/h (3 Bft)
21.12.2013 06:50 6,1 C 5,0 C 81 % 1025,6 hPa 0,0 l/m 0 min 0 min 0,0 UV-I 0 W/m 23,2 km/h (4 Bft)
21.12.2013 06:52 6,1 C 5,0 C 81 % 1025,5 hPa 0,0 l/m 0 min 0 min 0,0 UV-I 0 W/m 18,0 km/h (3 Bft)
21.12.2013 06:54 6,2 C 5,0 C 81 % 1025,5 hPa 0,0 l/m 0 min 0 min 0,0 UV-I 0 W/m 15,4 km/h (3 Bft)
21.12.2013 06:56 6,2 C 5,0 C 81 % 1025,5 hPa 0,0 l/m 0 min 0 min 0,0 UV-I 0 W/m 7,7 km/h (2 Bft)
21.12.2013 06:58 6,2 C 5,0 C 81 % 1025,5 hPa 0,0 l/m 0 min 0 min 0,0 UV-I 0 W/m 12,9 km/h (3 Bft)
21.12.2013 07:00 6,2 C 5,0 C 81 % 1025,5 hPa 0,0 l/m 0 min 0 min 0,0 UV-I 0 W/m 20,6 km/h (4 Bft)
21.12.2013 07:02 6,2 C 5,0 C 81 % 1025,4 hPa 0,0 l/m 0 min 0 min 0,0 UV-I 0 W/m 12,9 km/h (3 Bft)
21.12.2013 07:06 6,3 C 5,0 C 81 % 1025,6 hPa 0,0 l/m 0 min 0 min 0,0 UV-I 0 W/m 10,3 km/h (2 Bft)
21.12.2013 07:08 6,3 C 5,0 C 81 % 1025,6 hPa 0,0 l/m 0 min 0 min 0,0 UV-I 0 W/m 10,3 km/h (2 Bft)
21.12.2013 07:10 6,3 C 5,0 C 81 % 1025,5 hPa 0,0 l/m 0 min 0 min 0,0 UV-I 0 W/m 23,2 km/h (4 Bft)
21.12.2013 07:12 6,3 C 5,0 C 81 % 1025,6 hPa 0,0 l/m 0 min 0 min 0,0 UV-I 0 W/m 12,9 km/h (3 Bft)
21.12.2013 07:14 6,3 C 5,0 C 81 % 1025,5 hPa 0,0 l/m 0 min 0 min 0,0 UV-I 0 W/m 18,0 km/h (3 Bft)
21.12.2013 07:16 6,4 C 5,0 C 81 % 1025,5 hPa 0,0 l/m 0 min 0 min 0,0 UV-I 0 W/m 18,0 km/h (3 Bft)
21.12.2013 07:18 6,4 C 5,0 C 81 % 1025,4 hPa 0,0 l/m 0 min 0 min 0,0 UV-I 0 W/m 10,3 km/h (2 Bft)
21.12.2013 07:20 6,4 C 5,0 C 80 % 1025,4 hPa 0,0 l/m 0 min 0 min 0,0 UV-I 0 W/m 15,4 km/h (3 Bft)
21.12.2013 07:22 6,4 C 5,0 C 80 % 1025,3 hPa 0,0 l/m 0 min 0 min 0,0 UV-I 0 W/m 15,4 km/h (3 Bft)
21.12.2013 07:24 6,4 C 5,0 C 80 % 1025,4 hPa 0,0 l/m 0 min 0 min 0,0 UV-I 0 W/m 28,3 km/h (4 Bft)
21.12.2013 07:26 6,4 C 5,0 C 80 % 1025,3 hPa 0,0 l/m 0 min 0 min 0,0 UV-I 0 W/m 15,4 km/h (3 Bft)
21.12.2013 07:28 6,4 C 5,0 C 80 % 1025,4 hPa 0,0 l/m 0 min 0 min 0,0 UV-I 0 W/m 7,7 km/h (2 Bft)
21.12.2013 07:30 6,4 C 5,0 C 80 % 1025,5 hPa 0,0 l/m 0 min 0 min 0,0 UV-I 0 W/m 10,3 km/h (2 Bft)
21.12.2013 07:32 6,4 C 5,0 C 80 % 1025,3 hPa 0,0 l/m 0 min 0 min 0,0 UV-I 0 W/m 15,4 km/h (3 Bft)
21.12.2013 07:34 6,4 C 5,0 C 80 % 1025,3 hPa 0,0 l/m 0 min 0 min 0,0 UV-I 0 W/m 12,9 km/h (3 Bft)
21.12.2013 07:36 6,4 C 5,0 C 80 % 1025,4 hPa 0,0 l/m 0 min 0 min 0,0 UV-I 0 W/m 10,3 km/h (2 Bft)
21.12.2013 07:38 6,4 C 5,0 C 80 % 1025,3 hPa 0,0 l/m 0 min 0 min 0,0 UV-I 0 W/m 15,4 km/h (3 Bft)
21.12.2013 07:40 6,4 C 5,0 C 80 % 1025,3 hPa 0,0 l/m 0 min 0 min 0,0 UV-I 0 W/m 15,4 km/h (3 Bft)
21.12.2013 07:42 6,4 C 5,0 C 80 % 1025,3 hPa 0,0 l/m 0 min 0 min 0,0 UV-I 0 W/m 10,3 km/h (2 Bft)
21.12.2013 07:44 6,4 C 5,0 C 80 % 1025,2 hPa 0,0 l/m 0 min 0 min 0,0 UV-I 0 W/m 15,4 km/h (3 Bft)
21.12.2013 07:46 6,4 C 5,0 C 80 % 1025,3 hPa 0,0 l/m 0 min 0 min 0,0 UV-I 0 W/m 10,3 km/h (2 Bft)
21.12.2013 07:48 6,4 C 5,0 C 80 % 1025,3 hPa 0,0 l/m 0 min 0 min 0,0 UV-I 0 W/m 18,0 km/h (3 Bft)
21.12.2013 07:50 6,4 C 5,0 C 80 % 1025,3 hPa 0,0 l/m 0 min 0 min 0,0 UV-I 0 W/m 18,0 km/h (3 Bft)
21.12.2013 07:52 6,4 C 5,0 C 80 % 1025,3 hPa 0,0 l/m 0 min 0 min 0,0 UV-I 0 W/m 25,7 km/h (4 Bft)
21.12.2013 07:54 6,4 C 5,0 C 80 % 1025,2 hPa 0,0 l/m 0 min 0 min 0,0 UV-I 0 W/m 15,4 km/h (3 Bft)
21.12.2013 07:56 6,5 C 5,0 C 80 % 1025,2 hPa 0,0 l/m 0 min 0 min 0,0 UV-I 0 W/m 20,6 km/h (4 Bft)
21.12.2013 07:58 6,5 C 5,0 C 80 % 1025,3 hPa 0,0 l/m 0 min 0 min 0,0 UV-I 0 W/m 12,9 km/h (3 Bft)
21.12.2013 08:00 6,5 C 5,0 C 79 % 1025,2 hPa 0,0 l/m 0 min 0 min 0,0 UV-I 0 W/m 20,6 km/h (4 Bft)
21.12.2013 08:02 6,5 C 5,0 C 79 % 1025,2 hPa 0,0 l/m 0 min 0 min 0,0 UV-I 0 W/m 12,9 km/h (3 Bft)
21.12.2013 08:06 6,5 C 5,0 C 79 % 1025,2 hPa 0,0 l/m 0 min 0 min 0,0 UV-I 0 W/m 18,0 km/h (3 Bft)
21.12.2013 08:08 6,5 C 5,0 C 79 % 1025,3 hPa 0,0 l/m 0 min 0 min 0,0 UV-I 0 W/m 15,4 km/h (3 Bft)
21.12.2013 08:10 6,5 C 5,0 C 79 % 1025,4 hPa 0,0 l/m 0 min 0 min 0,0 UV-I 0 W/m 2,6 km/h (1 Bft)
21.12.2013 08:12 6,5 C 5,0 C 79 % 1025,3 hPa 0,0 l/m 0 min 0 min 0,0 UV-I 0 W/m 7,7 km/h (2 Bft)
21.12.2013 08:14 6,5 C 5,0 C 79 % 1025,4 hPa 0,0 l/m 0 min 0 min 0,0 UV-I 0 W/m 25,7 km/h (4 Bft)
21.12.2013 08:16 6,5 C 5,0 C 79 % 1025,4 hPa 0,0 l/m 0 min 0 min 0,0 UV-I 0 W/m 28,3 km/h (4 Bft)
21.12.2013 08:18 6,5 C 5,0 C 79 % 1025,5 hPa 0,0 l/m 0 min 0 min 0,0 UV-I 0 W/m 23,2 km/h (4 Bft)
21.12.2013 08:20 6,6 C 5,0 C 79 % 1025,5 hPa 0,0 l/m 0 min 0 min 0,0 UV-I 0 W/m 7,7 km/h (2 Bft)
21.12.2013 08:22 6,6 C 5,0 C 79 % 1025,5 hPa 0,0 l/m 0 min 0 min 0,0 UV-I 0 W/m 15,4 km/h (3 Bft)
21.12.2013 08:24 6,6 C 5,0 C 79 % 1025,5 hPa 0,0 l/m 0 min 0 min 0,0 UV-I 0 W/m 10,3 km/h (2 Bft)
21.12.2013 08:26 6,6 C 5,0 C 79 % 1025,4 hPa 0,0 l/m 0 min 0 min 0,0 UV-I 0 W/m 10,3 km/h (2 Bft)
21.12.2013 08:28 6,6 C 5,0 C 79 % 1025,4 hPa 0,0 l/m 0 min 0 min 0,0 UV-I 0 W/m 12,9 km/h (3 Bft)
21.12.2013 08:30 6,6 C 5,0 C 79 % 1025,4 hPa 0,0 l/m 0 min 0 min 0,0 UV-I 0 W/m 12,9 km/h (3 Bft)
21.12.2013 08:32 6,6 C 5,0 C 79 % 1025,5 hPa 0,0 l/m 0 min 0 min 0,0 UV-I 0 W/m 12,9 km/h (3 Bft)
21.12.2013 08:34 6,6 C 5,0 C 79 % 1025,5 hPa 0,0 l/m 0 min 0 min 0,0 UV-I 0 W/m 20,6 km/h (4 Bft)
21.12.2013 08:36 6,6 C 5,0 C 79 % 1025,4 hPa 0,0 l/m 0 min 0 min 0,0 UV-I 0 W/m 12,9 km/h (3 Bft)
21.12.2013 08:38 6,6 C 5,0 C 79 % 1025,5 hPa 0,0 l/m 0 min 0 min 0,0 UV-I 0 W/m 12,9 km/h (3 Bft)
21.12.2013 08:40 6,6 C 5,0 C 79 % 1025,4 hPa 0,0 l/m 0 min 0 min 0,0 UV-I 0 W/m 18,0 km/h (3 Bft)
21.12.2013 08:42 6,6 C 5,0 C 79 % 1025,4 hPa 0,0 l/m 0 min 0 min 0,0 UV-I 0 W/m 15,4 km/h (3 Bft)
21.12.2013 08:44 6,6 C 5,0 C 79 % 1025,4 hPa 0,0 l/m 0 min 0 min 0,0 UV-I 0 W/m 12,9 km/h (3 Bft)
21.12.2013 08:46 6,6 C 5,0 C 79 % 1025,3 hPa 0,0 l/m 0 min 0 min 0,0 UV-I 0 W/m 15,4 km/h (3 Bft)
21.12.2013 08:48 6,6 C 5,0 C 79 % 1025,2 hPa 0,0 l/m 0 min 0 min 0,0 UV-I 0 W/m 10,3 km/h (2 Bft)
21.12.2013 08:50 6,6 C 5,0 C 78 % 1025,2 hPa 0,0 l/m 0 min 0 min 0,0 UV-I 0 W/m 10,3 km/h (2 Bft)
21.12.2013 08:52 6,6 C 5,0 C 78 % 1025,2 hPa 0,0 l/m 0 min 0 min 0,0 UV-I 5 W/m 20,6 km/h (4 Bft)
21.12.2013 08:54 6,6 C 5,0 C 78 % 1025,2 hPa 0,0 l/m 0 min 0 min 0,0 UV-I 5 W/m 25,7 km/h (4 Bft)
21.12.2013 08:56 6,6 C 5,0 C 78 % 1025,2 hPa 0,0 l/m 0 min 0 min 0,0 UV-I 5 W/m 23,2 km/h (4 Bft)
21.12.2013 08:58 6,6 C 5,0 C 78 % 1025,2 hPa 0,0 l/m 0 min 0 min 0,0 UV-I 7 W/m 23,2 km/h (4 Bft)
21.12.2013 09:00 6,6 C 5,0 C 78 % 1025,2 hPa 0,0 l/m 0 min 0 min 0,0 UV-I 7 W/m 12,9 km/h (3 Bft)
21.12.2013 09:02 6,7 C 5,0 C 78 % 1025,2 hPa 0,0 l/m 0 min 0 min 0,0 UV-I 9 W/m 15,4 km/h (3 Bft)
21.12.2013 09:06 6,7 C 5,0 C 78 % 1025,2 hPa 0,0 l/m 0 min 0 min 0,0 UV-I 11 W/m 18,0 km/h (3 Bft)
21.12.2013 09:08 6,7 C 5,0 C 78 % 1025,2 hPa 0,0 l/m 0 min 0 min 0,0 UV-I 11 W/m 15,4 km/h (3 Bft)
21.12.2013 09:10 6,7 C 5,0 C 78 % 1025,2 hPa 0,0 l/m 0 min 0 min 0,0 UV-I 12 W/m 23,2 km/h (4 Bft)
21.12.2013 09:12 6,7 C 5,0 C 78 % 1025,1 hPa 0,0 l/m 0 min 0 min 0,0 UV-I 12 W/m 12,9 km/h (3 Bft)
21.12.2013 09:14 6,7 C 5,0 C 78 % 1025,2 hPa 0,0 l/m 0 min 0 min 0,0 UV-I 12 W/m 15,4 km/h (3 Bft)
21.12.2013 09:16 6,7 C 5,0 C 78 % 1025,1 hPa 0,0 l/m 0 min 0 min 0,0 UV-I 14 W/m 15,4 km/h (3 Bft)
21.12.2013 09:18 6,7 C 5,0 C 78 % 1025,1 hPa 0,0 l/m 0 min 0 min 0,0 UV-I 14 W/m 18,0 km/h (3 Bft)
21.12.2013 09:20 6,6 C 5,0 C 78 % 1025,0 hPa 0,0 l/m 0 min 0 min 0,0 UV-I 16 W/m 18,0 km/h (3 Bft)
21.12.2013 09:25 6,6 C 5,0 C 78 % 1025,1 hPa 0,0 l/m 0 min 0 min 0,0 UV-I 18 W/m 20,6 km/h (4 Bft)
21.12.2013 09:32 6,6 C 5,0 C 78 % 1025,1 hPa 0,0 l/m 0 min 0 min 0,0 UV-I 18 W/m 20,6 km/h (4 Bft)
21.12.2013 09:34 6,7 C 5,0 C 78 % 1025,0 hPa 0,0 l/m 0 min 0 min 0,0 UV-I 19 W/m 12,9 km/h (3 Bft)
21.12.2013 09:36 6,7 C 5,0 C 78 % 1025,2 hPa 0,0 l/m 0 min 0 min 0,0 UV-I 19 W/m 23,2 km/h (4 Bft)
21.12.2013 09:38 6,7 C 5,0 C 78 % 1025,1 hPa 0,0 l/m 0 min 0 min 0,0 UV-I 21 W/m 10,3 km/h (2 Bft)
21.12.2013 09:40 6,7 C 5,6 C 78 % 1025,1 hPa 0,0 l/m 0 min 0 min 0,0 UV-I 23 W/m 28,3 km/h (4 Bft)
21.12.2013 09:42 6,7 C 5,6 C 78 % 1025,1 hPa 0,0 l/m 0 min 0 min 0,0 UV-I 25 W/m 23,2 km/h (4 Bft)
21.12.2013 09:44 6,7 C 5,6 C 78 % 1025,2 hPa 0,0 l/m 0 min 0 min 0,0 UV-I 25 W/m 18,0 km/h (3 Bft)
21.12.2013 09:46 6,8 C 5,6 C 78 % 1025,2 hPa 0,0 l/m 0 min 0 min 0,0 UV-I 26 W/m 12,9 km/h (3 Bft)
21.12.2013 09:48 6,8 C 5,6 C 78 % 1025,1 hPa 0,0 l/m 0 min 0 min 0,0 UV-I 26 W/m 10,3 km/h (2 Bft)
21.12.2013 09:50 6,8 C 5,6 C 78 % 1025,1 hPa 0,0 l/m 0 min 0 min 0,0 UV-I 28 W/m 7,7 km/h (2 Bft)
21.12.2013 09:52 6,8 C 5,6 C 78 % 1025,0 hPa 0,0 l/m 0 min 0 min 0,0 UV-I 28 W/m 33,5 km/h (5 Bft)
21.12.2013 09:54 6,8 C 5,6 C 78 % 1025,1 hPa 0,0 l/m 0 min 0 min 0,0 UV-I 30 W/m 20,6 km/h (4 Bft)
21.12.2013 09:56 6,8 C 5,6 C 78 % 1025,1 hPa 0,0 l/m 0 min 0 min 0,0 UV-I 32 W/m 12,9 km/h (3 Bft)
21.12.2013 09:58 6,9 C 5,6 C 78 % 1025,1 hPa 0,0 l/m 0 min 0 min 0,0 UV-I 35 W/m 12,9 km/h (3 Bft)
21.12.2013 10:00 6,9 C 5,6 C 78 % 1025,2 hPa 0,0 l/m 0 min 0 min 0,0 UV-I 35 W/m 12,9 km/h (3 Bft)
21.12.2013 10:02 6,9 C 5,6 C 78 % 1025,2 hPa 0,0 l/m 0 min 0 min 0,0 UV-I 37 W/m 10,3 km/h (2 Bft)
21.12.2013 10:06 6,9 C 5,6 C 78 % 1025,2 hPa 0,0 l/m 0 min 0 min 0,0 UV-I 42 W/m 18,0 km/h (3 Bft)
21.12.2013 10:08 6,9 C 5,6 C 78 % 1025,3 hPa 0,0 l/m 0 min 0 min 0,0 UV-I 46 W/m 18,0 km/h (3 Bft)
21.12.2013 10:10 6,9 C 5,6 C 78 % 1025,2 hPa 0,0 l/m 0 min 0 min 0,0 UV-I 47 W/m 18,0 km/h (3 Bft)
21.12.2013 10:12 7,0 C 5,6 C 77 % 1025,2 hPa 0,0 l/m 0 min 0 min 0,0 UV-I 49 W/m 15,4 km/h (3 Bft)
21.12.2013 10:14 7,0 C 5,6 C 77 % 1025,2 hPa 0,0 l/m 0 min 0 min 0,0 UV-I 47 W/m 15,4 km/h (3 Bft)
21.12.2013 10:16 7,1 C 5,6 C 77 % 1025,2 hPa 0,0 l/m 0 min 0 min 0,0 UV-I 46 W/m 15,4 km/h (3 Bft)
21.12.2013 10:18 7,1 C 5,6 C 77 % 1025,2 hPa 0,0 l/m 0 min 0 min 0,0 UV-I 44 W/m 12,9 km/h (3 Bft)
21.12.2013 10:20 7,1 C 5,6 C 77 % 1025,2 hPa 0,0 l/m 0 min 0 min 0,0 UV-I 46 W/m 10,3 km/h (2 Bft)
21.12.2013 10:22 7,1 C 5,6 C 77 % 1025,2 hPa 0,0 l/m 0 min 0 min 0,0 UV-I 47 W/m 23,2 km/h (4 Bft)
21.12.2013 10:24 7,2 C 5,6 C 77 % 1025,2 hPa 0,0 l/m 0 min 0 min 0,0 UV-I 49 W/m 7,7 km/h (2 Bft)
21.12.2013 10:26 7,2 C 6,1 C 77 % 1025,2 hPa 0,0 l/m 0 min 0 min 0,0 UV-I 51 W/m 20,6 km/h (4 Bft)
21.12.2013 10:28 7,2 C 6,1 C 77 % 1025,3 hPa 0,0 l/m 0 min 0 min 0,0 UV-I 53 W/m 20,6 km/h (4 Bft)
21.12.2013 10:30 7,2 C 6,1 C 77 % 1025,2 hPa 0,0 l/m 0 min 0 min 0,0 UV-I 53 W/m 12,9 km/h (3 Bft)
21.12.2013 10:32 7,3 C 6,1 C 77 % 1025,2 hPa 0,0 l/m 0 min 0 min 0,0 UV-I 53 W/m 20,6 km/h (4 Bft)
21.12.2013 10:34 7,3 C 6,1 C 77 % 1025,2 hPa 0,0 l/m 0 min 0 min 0,0 UV-I 54 W/m 28,3 km/h (4 Bft)
21.12.2013 10:36 7,3 C 6,1 C 77 % 1025,2 hPa 0,0 l/m 0 min 0 min 0,0 UV-I 58 W/m 18,0 km/h (3 Bft)
21.12.2013 10:38 7,4 C 6,1 C 77 % 1025,2 hPa 0,0 l/m 0 min 0 min 0,0 UV-I 67 W/m 23,2 km/h (4 Bft)
21.12.2013 10:40 7,4 C 6,1 C 77 % 1025,2 hPa 0,0 l/m 0 min 0 min 0,0 UV-I 74 W/m 7,7 km/h (2 Bft)
21.12.2013 10:42 7,4 C 6,1 C 77 % 1025,2 hPa 0,0 l/m 0 min 0 min 0,0 UV-I 81 W/m 23,2 km/h (4 Bft)
21.12.2013 10:44 7,5 C 6,1 C 76 % 1025,1 hPa 0,0 l/m 0 min 0 min 0,0 UV-I 86 W/m 25,7 km/h (4 Bft)
21.12.2013 10:46 7,6 C 6,7 C 76 % 1025,2 hPa 0,0 l/m 0 min 0 min 0,0 UV-I 91 W/m 10,3 km/h (2 Bft)
21.12.2013 10:48 7,7 C 6,7 C 76 % 1025,2 hPa 0,0 l/m 0 min 0 min 0,0 UV-I 95 W/m 25,7 km/h (4 Bft)
21.12.2013 10:50 7,7 C 6,7 C 75 % 1025,2 hPa 0,0 l/m 0 min 0 min 0,0 UV-I 97 W/m 15,4 km/h (3 Bft)
21.12.2013 10:52 7,8 C 6,7 C 75 % 1025,2 hPa 0,0 l/m 0 min 0 min 0,0 UV-I 93 W/m 15,4 km/h (3 Bft)
21.12.2013 10:54 7,8 C 6,7 C 75 % 1025,2 hPa 0,0 l/m 0 min 0 min 0,0 UV-I 91 W/m 18,0 km/h (3 Bft)
21.12.2013 10:56 7,9 C 6,7 C 75 % 1025,2 hPa 0,0 l/m 0 min 0 min 0,0 UV-I 86 W/m 18,0 km/h (3 Bft)
21.12.2013 10:58 7,9 C 6,7 C 75 % 1025,2 hPa 0,0 l/m 0 min 0 min 0,0 UV-I 83 W/m 20,6 km/h (4 Bft)
21.12.2013 11:00 7,9 C 6,7 C 75 % 1025,1 hPa 0,0 l/m 0 min 0 min 0,0 UV-I 77 W/m 15,4 km/h (3 Bft)
21.12.2013 11:02 7,9 C 6,7 C 74 % 1025,1 hPa 0,0 l/m 0 min 0 min 0,0 UV-I 76 W/m 15,4 km/h (3 Bft)
21.12.2013 11:06 7,9 C 6,7 C 74 % 1025,2 hPa 0,0 l/m 0 min 0 min 0,0 UV-I 74 W/m 18,0 km/h (3 Bft)
21.12.2013 11:08 7,9 C 6,7 C 74 % 1025,1 hPa 0,0 l/m 0 min 0 min 0,0 UV-I 72 W/m 15,4 km/h (3 Bft)
21.12.2013 11:10 7,9 C 6,7 C 74 % 1025,0 hPa 0,0 l/m 0 min 0 min 0,0 UV-I 72 W/m 20,6 km/h (4 Bft)
21.12.2013 11:12 7,9 C 6,7 C 74 % 1025,2 hPa 0,0 l/m 0 min 0 min 0,0 UV-I 74 W/m 30,9 km/h (5 Bft)
21.12.2013 11:14 7,9 C 6,7 C 73 % 1025,0 hPa 0,0 l/m 0 min 0 min 0,0 UV-I 72 W/m 28,3 km/h (4 Bft)
21.12.2013 11:16 7,9 C 6,7 C 73 % 1025,0 hPa 0,0 l/m 0 min 0 min 0,0 UV-I 70 W/m 36,0 km/h (5 Bft)
21.12.2013 11:18 7,9 C 6,7 C 73 % 1025,0 hPa 0,0 l/m 0 min 0 min 0,0 UV-I 67 W/m 23,2 km/h (4 Bft)
21.12.2013 11:20 7,9 C 6,7 C 73 % 1025,0 hPa 0,0 l/m 0 min 0 min 0,0 UV-I 65 W/m 25,7 km/h (4 Bft)
21.12.2013 11:22 7,9 C 6,7 C 73 % 1024,9 hPa 0,0 l/m 0 min 0 min 0,0 UV-I 63 W/m 30,9 km/h (5 Bft)
21.12.2013 11:24 7,9 C 6,7 C 73 % 1025,0 hPa 0,0 l/m 0 min 0 min 0,0 UV-I 63 W/m 28,3 km/h (4 Bft)
21.12.2013 11:26 7,9 C 6,7 C 73 % 1024,9 hPa 0,0 l/m 0 min 0 min 0,0 UV-I 65 W/m 15,4 km/h (3 Bft)
21.12.2013 11:28 7,8 C 6,7 C 73 % 1024,9 hPa 0,0 l/m 0 min 0 min 0,0 UV-I 65 W/m 23,2 km/h (4 Bft)
21.12.2013 11:30 7,9 C 6,7 C 73 % 1024,8 hPa 0,0 l/m 0 min 0 min 0,0 UV-I 70 W/m 28,3 km/h (4 Bft)
21.12.2013 11:32 7,9 C 6,7 C 73 % 1024,8 hPa 0,0 l/m 0 min 0 min 0,0 UV-I 72 W/m 15,4 km/h (3 Bft)
21.12.2013 11:34 7,8 C 6,7 C 73 % 1024,8 hPa 0,0 l/m 0 min 0 min 0,0 UV-I 76 W/m 15,4 km/h (3 Bft)
21.12.2013 11:36 7,8 C 6,7 C 73 % 1024,9 hPa 0,0 l/m 0 min 0 min 0,0 UV-I 79 W/m 28,3 km/h (4 Bft)
21.12.2013 11:38 7,9 C 6,7 C 73 % 1024,8 hPa 0,0 l/m 0 min 0 min 0,0 UV-I 81 W/m 25,7 km/h (4 Bft)
21.12.2013 11:40 7,9 C 6,7 C 73 % 1024,8 hPa 0,0 l/m 0 min 0 min 0,0 UV-I 84 W/m 15,4 km/h (3 Bft)
21.12.2013 11:42 7,9 C 6,7 C 73 % 1024,8 hPa 0,0 l/m 0 min 0 min 0,0 UV-I 90 W/m 28,3 km/h (4 Bft)
21.12.2013 11:44 7,9 C 6,7 C 73 % 1024,8 hPa 0,0 l/m 0 min 0 min 0,0 UV-I 93 W/m 15,4 km/h (3 Bft)
21.12.2013 11:46 7,9 C 6,7 C 73 % 1024,8 hPa 0,0 l/m 0 min 0 min 0,0 UV-I 98 W/m 23,2 km/h (4 Bft)
21.12.2013 11:48 7,9 C 6,7 C 73 % 1024,8 hPa 0,0 l/m 0 min 0 min 0,0 UV-I 102 W/m 30,9 km/h (5 Bft)
21.12.2013 11:50 7,9 C 6,7 C 72 % 1024,8 hPa 0,0 l/m 0 min 0 min 0,0 UV-I 104 W/m 25,7 km/h (4 Bft)
21.12.2013 11:52 7,9 C 6,7 C 73 % 1024,7 hPa 0,0 l/m 0 min 0 min 0,0 UV-I 105 W/m 7,7 km/h (2 Bft)
21.12.2013 11:54 7,9 C 6,7 C 73 % 1024,7 hPa 0,0 l/m 0 min 0 min 0,0 UV-I 105 W/m 12,9 km/h (3 Bft)
21.12.2013 11:56 7,9 C 6,7 C 73 % 1024,7 hPa 0,0 l/m 0 min 0 min 0,0 UV-I 105 W/m 18,0 km/h (3 Bft)
21.12.2013 11:58 7,9 C 6,7 C 73 % 1024,7 hPa 0,0 l/m 0 min 0 min 0,0 UV-I 104 W/m 15,4 km/h (3 Bft)
21.12.2013 12:00 7,9 C 6,7 C 73 % 1024,7 hPa 0,0 l/m 0 min 0 min 0,0 UV-I 102 W/m 25,7 km/h (4 Bft)
21.12.2013 12:02 7,9 C 6,7 C 73 % 1024,6 hPa 0,0 l/m 0 min 0 min 0,0 UV-I 100 W/m 25,7 km/h (4 Bft)
21.12.2013 12:06 7,9 C 6,7 C 73 % 1024,6 hPa 0,0 l/m 0 min 0 min 0,0 UV-I 93 W/m 23,2 km/h (4 Bft)
21.12.2013 12:08 7,9 C 6,7 C 73 % 1024,5 hPa 0,0 l/m 0 min 0 min 0,0 UV-I 91 W/m 20,6 km/h (4 Bft)
21.12.2013 12:10 7,9 C 6,7 C 73 % 1024,4 hPa 0,0 l/m 0 min 0 min 0,0 UV-I 90 W/m 30,9 km/h (5 Bft)
21.12.2013 12:12 7,9 C 6,7 C 73 % 1024,2 hPa 0,0 l/m 0 min 0 min 0,0 UV-I 90 W/m 20,6 km/h (4 Bft)
21.12.2013 12:14 7,9 C 6,7 C 73 % 1024,3 hPa 0,0 l/m 0 min 0 min 0,0 UV-I 88 W/m 38,6 km/h (5 Bft)
21.12.2013 12:16 7,9 C 6,7 C 73 % 1024,2 hPa 0,0 l/m 0 min 0 min 0,0 UV-I 84 W/m 36,0 km/h (5 Bft)
21.12.2013 12:18 7,9 C 6,7 C 73 % 1024,2 hPa 0,0 l/m 0 min 0 min 0,0 UV-I 81 W/m 25,7 km/h (4 Bft)
21.12.2013 12:20 7,9 C 6,7 C 73 % 1024,1 hPa 0,0 l/m 0 min 0 min 0,0 UV-I 79 W/m 20,6 km/h (4 Bft)
21.12.2013 12:22 7,9 C 6,7 C 73 % 1024,2 hPa 0,0 l/m 0 min 0 min 0,0 UV-I 76 W/m 12,9 km/h (3 Bft)
21.12.2013 12:24 7,9 C 6,7 C 73 % 1024,4 hPa 0,0 l/m 0 min 0 min 0,0 UV-I 72 W/m 28,3 km/h (4 Bft)
21.12.2013 12:26 7,9 C 6,7 C 73 % 1024,1 hPa 0,0 l/m 0 min 0 min 0,0 UV-I 67 W/m 28,3 km/h (4 Bft)
21.12.2013 12:28 7,9 C 6,7 C 73 % 1024,1 hPa 0,0 l/m 0 min 0 min 0,0 UV-I 63 W/m 23,2 km/h (4 Bft)
21.12.2013 12:30 7,9 C 6,7 C 73 % 1024,1 hPa 0,0 l/m 0 min 0 min 0,0 UV-I 63 W/m 38,6 km/h (5 Bft)
21.12.2013 12:32 7,9 C 6,7 C 73 % 1024,0 hPa 0,0 l/m 0 min 0 min 0,0 UV-I 62 W/m 15,4 km/h (3 Bft)
21.12.2013 12:34 7,8 C 6,7 C 73 % 1024,0 hPa 0,0 l/m 0 min 0 min 0,0 UV-I 62 W/m 20,6 km/h (4 Bft)
21.12.2013 12:36 7,8 C 6,7 C 73 % 1024,1 hPa 0,0 l/m 0 min 0 min 0,0 UV-I 60 W/m 18,0 km/h (3 Bft)
21.12.2013 12:38 7,8 C 6,7 C 73 % 1024,1 hPa 0,0 l/m 0 min 0 min 0,0 UV-I 58 W/m 30,9 km/h (5 Bft)
21.12.2013 12:40 7,8 C 6,7 C 72 % 1024,0 hPa 0,0 l/m 0 min 0 min 0,0 UV-I 56 W/m 25,7 km/h (4 Bft)
21.12.2013 12:42 7,8 C 6,7 C 72 % 1024,0 hPa 0,0 l/m 0 min 0 min 0,0 UV-I 53 W/m 25,7 km/h (4 Bft)
21.12.2013 12:44 7,8 C 6,7 C 73 % 1024,0 hPa 0,0 l/m 0 min 0 min 0,0 UV-I 51 W/m 33,5 km/h (5 Bft)
21.12.2013 12:46 7,8 C 6,7 C 73 % 1023,9 hPa 0,0 l/m 0 min 0 min 0,0 UV-I 49 W/m 33,5 km/h (5 Bft)
21.12.2013 12:48 7,8 C 6,7 C 72 % 1023,8 hPa 0,0 l/m 0 min 0 min 0,0 UV-I 51 W/m 28,3 km/h (4 Bft)
21.12.2013 12:50 7,8 C 6,7 C 72 % 1023,8 hPa 0,0 l/m 0 min 0 min 0,0 UV-I 53 W/m 18,0 km/h (3 Bft)
21.12.2013 12:52 7,8 C 6,7 C 73 % 1023,8 hPa 0,0 l/m 0 min 0 min 0,0 UV-I 53 W/m 12,9 km/h (3 Bft)
21.12.2013 12:54 7,8 C 6,7 C 73 % 1023,8 hPa 0,0 l/m 0 min 0 min 0,0 UV-I 54 W/m 23,2 km/h (4 Bft)
21.12.2013 12:56 7,8 C 6,7 C 73 % 1023,7 hPa 0,0 l/m 0 min 0 min 0,0 UV-I 54 W/m 28,3 km/h (4 Bft)
21.12.2013 12:58 7,8 C 6,7 C 73 % 1023,6 hPa 0,0 l/m 0 min 0 min 0,0 UV-I 56 W/m 12,9 km/h (3 Bft)
21.12.2013 13:00 7,8 C 6,7 C 73 % 1023,6 hPa 0,0 l/m 0 min 0 min 0,0 UV-I 56 W/m 18,0 km/h (3 Bft)
21.12.2013 13:02 7,8 C 6,7 C 73 % 1023,9 hPa 0,0 l/m 0 min 0 min 0,0 UV-I 58 W/m 20,6 km/h (4 Bft)
21.12.2013 13:06 7,8 C 6,7 C 73 % 1023,5 hPa 0,0 l/m 0 min 0 min 0,0 UV-I 60 W/m 18,0 km/h (3 Bft)
21.12.2013 13:08 7,8 C 6,7 C 73 % 1023,5 hPa 0,0 l/m 0 min 0 min 0,0 UV-I 62 W/m 12,9 km/h (3 Bft)
21.12.2013 13:10 7,8 C 6,7 C 73 % 1023,5 hPa 0,0 l/m 0 min 0 min 0,0 UV-I 60 W/m 18,0 km/h (3 Bft)
21.12.2013 13:12 7,8 C 6,7 C 73 % 1023,5 hPa 0,0 l/m 0 min 0 min 0,0 UV-I 60 W/m 28,3 km/h (4 Bft)
21.12.2013 13:14 7,8 C 6,7 C 73 % 1023,3 hPa 0,0 l/m 0 min 0 min 0,0 UV-I 58 W/m 18,0 km/h (3 Bft)
21.12.2013 13:16 7,8 C 6,7 C 72 % 1023,4 hPa 0,0 l/m 0 min 0 min 0,0 UV-I 56 W/m 18,0 km/h (3 Bft)
21.12.2013 13:18 7,9 C 6,7 C 72 % 1023,3 hPa 0,0 l/m 0 min 0 min 0,0 UV-I 56 W/m 18,0 km/h (3 Bft)
21.12.2013 13:20 7,9 C 6,7 C 72 % 1023,3 hPa 0,0 l/m 0 min 0 min 0,0 UV-I 56 W/m 18,0 km/h (3 Bft)
21.12.2013 13:22 7,9 C 6,7 C 72 % 1023,3 hPa 0,0 l/m 0 min 0 min 0,0 UV-I 56 W/m 33,5 km/h (5 Bft)
21.12.2013 13:24 7,9 C 6,7 C 72 % 1023,3 hPa 0,0 l/m 0 min 0 min 0,0 UV-I 56 W/m 12,9 km/h (3 Bft)
21.12.2013 13:26 7,9 C 6,7 C 72 % 1023,2 hPa 0,0 l/m 0 min 0 min 0,0 UV-I 56 W/m 15,4 km/h (3 Bft)
21.12.2013 13:28 7,9 C 6,7 C 72 % 1023,2 hPa 0,0 l/m 0 min 0 min 0,0 UV-I 54 W/m 12,9 km/h (3 Bft)
21.12.2013 13:30 7,9 C 6,7 C 72 % 1023,2 hPa 0,0 l/m 0 min 0 min 0,0 UV-I 53 W/m 23,2 km/h (4 Bft)
21.12.2013 13:32 7,9 C 6,7 C 72 % 1023,2 hPa 0,0 l/m 0 min 0 min 0,0 UV-I 53 W/m 18,0 km/h (3 Bft)
21.12.2013 13:34 7,9 C 6,7 C 72 % 1023,2 hPa 0,0 l/m 0 min 0 min 0,0 UV-I 54 W/m 23,2 km/h (4 Bft)
21.12.2013 13:36 7,9 C 6,7 C 71 % 1023,2 hPa 0,0 l/m 0 min 0 min 0,0 UV-I 56 W/m 15,4 km/h (3 Bft)
21.12.2013 13:38 7,9 C 6,7 C 71 % 1023,3 hPa 0,0 l/m 0 min 0 min 0,0 UV-I 56 W/m 25,7 km/h (4 Bft)
21.12.2013 13:40 8,0 C 6,7 C 71 % 1023,1 hPa 0,0 l/m 0 min 0 min 0,0 UV-I 54 W/m 25,7 km/h (4 Bft)
21.12.2013 13:42 8,0 C 6,7 C 71 % 1023,0 hPa 0,0 l/m 0 min 0 min 0,0 UV-I 54 W/m 20,6 km/h (4 Bft)
21.12.2013 13:44 8,0 C 6,7 C 71 % 1022,9 hPa 0,0 l/m 0 min 0 min 0,0 UV-I 54 W/m 10,3 km/h (2 Bft)
21.12.2013 13:46 8,0 C 6,7 C 71 % 1022,8 hPa 0,0 l/m 0 min 0 min 0,0 UV-I 56 W/m 12,9 km/h (3 Bft)
21.12.2013 13:48 7,9 C 6,7 C 71 % 1022,9 hPa 0,0 l/m 0 min 0 min 0,0 UV-I 54 W/m 28,3 km/h (4 Bft)
21.12.2013 13:50 7,9 C 6,7 C 71 % 1022,8 hPa 0,0 l/m 0 min 0 min 0,0 UV-I 53 W/m 33,5 km/h (5 Bft)
21.12.2013 13:52 7,9 C 6,7 C 71 % 1022,7 hPa 0,0 l/m 0 min 0 min 0,0 UV-I 49 W/m 30,9 km/h (5 Bft)
21.12.2013 13:54 7,9 C 6,7 C 71 % 1022,8 hPa 0,0 l/m 0 min 0 min 0,0 UV-I 49 W/m 25,7 km/h (4 Bft)
21.12.2013 13:56 7,9 C 6,7 C 70 % 1022,8 hPa 0,0 l/m 0 min 0 min 0,0 UV-I 49 W/m 15,4 km/h (3 Bft)
21.12.2013 13:58 7,9 C 6,7 C 71 % 1022,8 hPa 0,0 l/m 0 min 0 min 0,0 UV-I 49 W/m 18,0 km/h (3 Bft)
21.12.2013 14:00 7,9 C 6,7 C 71 % 1022,7 hPa 0,0 l/m 0 min 0 min 0,0 UV-I 47 W/m 15,4 km/h (3 Bft)
21.12.2013 14:02 7,9 C 6,7 C 70 % 1022,7 hPa 0,0 l/m 0 min 0 min 0,0 UV-I 46 W/m 20,6 km/h (4 Bft)
21.12.2013 14:06 7,9 C 6,7 C 70 % 1022,8 hPa 0,0 l/m 0 min 0 min 0,0 UV-I 44 W/m 20,6 km/h (4 Bft)
21.12.2013 14:08 7,9 C 6,7 C 71 % 1022,7 hPa 0,0 l/m 0 min 0 min 0,0 UV-I 44 W/m 25,7 km/h (4 Bft)
21.12.2013 14:10 7,9 C 6,7 C 70 % 1022,6 hPa 0,0 l/m 0 min 0 min 0,0 UV-I 44 W/m 12,9 km/h (3 Bft)
21.12.2013 14:12 7,9 C 6,7 C 70 % 1022,7 hPa 0,0 l/m 0 min 0 min 0,0 UV-I 46 W/m 23,2 km/h (4 Bft)
21.12.2013 14:14 7,9 C 6,7 C 70 % 1022,6 hPa 0,0 l/m 0 min 0 min 0,0 UV-I 46 W/m 23,2 km/h (4 Bft)
21.12.2013 14:16 7,9 C 6,7 C 70 % 1022,6 hPa 0,0 l/m 0 min 0 min 0,0 UV-I 44 W/m 33,5 km/h (5 Bft)
21.12.2013 14:18 7,9 C 6,7 C 71 % 1022,5 hPa 0,0 l/m 0 min 0 min 0,0 UV-I 42 W/m 15,4 km/h (3 Bft)
21.12.2013 14:20 7,9 C 6,7 C 71 % 1022,6 hPa 0,0 l/m 0 min 0 min 0,0 UV-I 40 W/m 23,2 km/h (4 Bft)
21.12.2013 14:22 7,9 C 6,7 C 70 % 1022,4 hPa 0,0 l/m 0 min 0 min 0,0 UV-I 39 W/m 20,6 km/h (4 Bft)
21.12.2013 14:24 7,9 C 6,7 C 70 % 1022,6 hPa 0,0 l/m 0 min 0 min 0,0 UV-I 39 W/m 25,7 km/h (4 Bft)
21.12.2013 14:26 7,8 C 6,7 C 71 % 1022,4 hPa 0,0 l/m 0 min 0 min 0,0 UV-I 39 W/m 15,4 km/h (3 Bft)
21.12.2013 14:28 7,9 C 6,7 C 71 % 1022,5 hPa 0,0 l/m 0 min 0 min 0,0 UV-I 37 W/m 12,9 km/h (3 Bft)
21.12.2013 14:30 7,8 C 6,1 C 71 % 1022,3 hPa 0,0 l/m 0 min 0 min 0,0 UV-I 37 W/m 10,3 km/h (2 Bft)
21.12.2013 14:32 7,8 C 6,1 C 71 % 1022,4 hPa 0,0 l/m 0 min 0 min 0,0 UV-I 39 W/m 18,0 km/h (3 Bft)
21.12.2013 14:34 7,8 C 6,7 C 70 % 1022,3 hPa 0,0 l/m 0 min 0 min 0,0 UV-I 39 W/m 33,5 km/h (5 Bft)
21.12.2013 14:36 7,8 C 6,7 C 71 % 1022,3 hPa 0,0 l/m 0 min 0 min 0,0 UV-I 37 W/m 10,3 km/h (2 Bft)
21.12.2013 14:38 7,8 C 6,7 C 71 % 1022,4 hPa 0,0 l/m 0 min 0 min 0,0 UV-I 33 W/m 25,7 km/h (4 Bft)
21.12.2013 14:40 7,8 C 6,7 C 71 % 1022,4 hPa 0,0 l/m 0 min 0 min 0,0 UV-I 37 W/m 25,7 km/h (4 Bft)
21.12.2013 14:45 7,8 C 6,1 C 71 % 1022,3 hPa 0,0 l/m 0 min 0 min 0,0 UV-I 30 W/m 25,7 km/h (4 Bft)
21.12.2013 14:50 7,8 C 6,1 C 71 % 1022,1 hPa 0,0 l/m 0 min 0 min 0,0 UV-I 26 W/m 12,9 km/h (3 Bft)
21.12.2013 14:55 7,8 C 6,1 C 71 % 1022,2 hPa 0,0 l/m 0 min 0 min 0,0 UV-I 25 W/m 25,7 km/h (4 Bft)
21.12.2013 15:00 7,8 C 6,1 C 71 % 1022,0 hPa 0,0 l/m 0 min 0 min 0,0 UV-I 23 W/m 33,5 km/h (5 Bft)
21.12.2013 15:05 7,8 C 6,1 C 70 % 1021,9 hPa 0,0 l/m 0 min 0 min 0,0 UV-I 21 W/m 28,3 km/h (4 Bft)
21.12.2013 15:10 7,8 C 6,1 C 70 % 1021,8 hPa 0,0 l/m 0 min 0 min 0,0 UV-I 21 W/m 28,3 km/h (4 Bft)
21.12.2013 15:15 7,8 C 6,1 C 70 % 1021,8 hPa 0,0 l/m 0 min 0 min 0,0 UV-I 19 W/m 41,2 km/h (6 Bft)
21.12.2013 15:20 7,7 C 6,1 C 70 % 1021,8 hPa 0,0 l/m 0 min 0 min 0,0 UV-I 18 W/m 30,9 km/h (5 Bft)
21.12.2013 15:25 7,7 C 6,1 C 70 % 1021,8 hPa 0,0 l/m 0 min 0 min 0,0 UV-I 16 W/m 23,2 km/h (4 Bft)
21.12.2013 15:30 7,7 C 6,1 C 69 % 1021,9 hPa 0,0 l/m 0 min 0 min 0,0 UV-I 16 W/m 23,2 km/h (4 Bft)
21.12.2013 15:35 7,7 C 6,1 C 69 % 1021,8 hPa 0,0 l/m 0 min 0 min 0,0 UV-I 14 W/m 18,0 km/h (3 Bft)
21.12.2013 15:40 7,7 C 6,1 C 69 % 1021,8 hPa 0,0 l/m 0 min 0 min 0,0 UV-I 14 W/m 28,3 km/h (4 Bft)
21.12.2013 15:45 7,7 C 6,1 C 69 % 1021,7 hPa 0,0 l/m 0 min 0 min 0,0 UV-I 14 W/m 20,6 km/h (4 Bft)
21.12.2013 15:50 7,7 C 6,1 C 70 % 1021,8 hPa 0,0 l/m 0 min 0 min 0,0 UV-I 12 W/m 12,9 km/h (3 Bft)
21.12.2013 15:55 7,7 C 6,1 C 70 % 1021,7 hPa 0,0 l/m 0 min 0 min 0,0 UV-I 12 W/m 23,2 km/h (4 Bft)
21.12.2013 16:00 7,7 C 6,1 C 70 % 1021,6 hPa 0,0 l/m 0 min 0 min 0,0 UV-I 11 W/m 28,3 km/h (4 Bft)
21.12.2013 16:05 7,6 C 6,1 C 70 % 1021,7 hPa 0,0 l/m 0 min 0 min 0,0 UV-I 11 W/m 25,7 km/h (4 Bft)
21.12.2013 16:10 7,6 C 5,6 C 70 % 1021,8 hPa 0,0 l/m 0 min 0 min 0,0 UV-I 9 W/m 28,3 km/h (4 Bft)
21.12.2013 16:14 7,6 C 5,6 C 70 % 1021,7 hPa 0,0 l/m 0 min 0 min 0,0 UV-I 7 W/m 0,0 km/h (0 Bft)
21.12.2013 16:16 7,6 C 5,6 C 70 % 1021,7 hPa 0,0 l/m 0 min 0 min 0,0 UV-I 5 W/m 23,2 km/h (4 Bft)
21.12.2013 16:18 7,5 C 5,6 C 70 % 1021,7 hPa 0,0 l/m 0 min 0 min 0,0 UV-I 5 W/m 23,2 km/h (4 Bft)
21.12.2013 16:20 7,5 C 5,6 C 70 % 1021,6 hPa 0,0 l/m 0 min 0 min 0,0 UV-I 5 W/m 10,3 km/h (2 Bft)
21.12.2013 16:22 7,5 C 5,6 C 70 % 1021,6 hPa 0,0 l/m 0 min 0 min 0,0 UV-I 0 W/m 12,9 km/h (3 Bft)
21.12.2013 16:24 7,5 C 5,6 C 70 % 1021,5 hPa 0,0 l/m 0 min 0 min 0,0 UV-I 0 W/m 12,9 km/h (3 Bft)
21.12.2013 16:26 7,4 C 5,6 C 70 % 1021,7 hPa 0,0 l/m 0 min 0 min 0,0 UV-I 0 W/m 15,4 km/h (3 Bft)
21.12.2013 16:28 7,4 C 5,6 C 70 % 1021,5 hPa 0,0 l/m 0 min 0 min 0,0 UV-I 0 W/m 23,2 km/h (4 Bft)
21.12.2013 16:30 7,4 C 5,6 C 70 % 1021,8 hPa 0,0 l/m 0 min 0 min 0,0 UV-I 0 W/m 12,9 km/h (3 Bft)
21.12.2013 16:32 7,4 C 5,6 C 70 % 1021,8 hPa 0,0 l/m 0 min 0 min 0,0 UV-I 0 W/m 33,5 km/h (5 Bft)
21.12.2013 16:34 7,4 C 5,6 C 70 % 1021,7 hPa 0,0 l/m 0 min 0 min 0,0 UV-I 0 W/m 15,4 km/h (3 Bft)
21.12.2013 16:36 7,4 C 5,6 C 70 % 1021,6 hPa 0,0 l/m 0 min 0 min 0,0 UV-I 0 W/m 10,3 km/h (2 Bft)
21.12.2013 16:38 7,3 C 5,6 C 70 % 1021,6 hPa 0,0 l/m 0 min 0 min 0,0 UV-I 0 W/m 15,4 km/h (3 Bft)
21.12.2013 16:40 7,3 C 5,6 C 70 % 1021,7 hPa 0,0 l/m 0 min 0 min 0,0 UV-I 0 W/m 12,9 km/h (3 Bft)
21.12.2013 16:42 7,3 C 5,6 C 70 % 1021,6 hPa 0,0 l/m 0 min 0 min 0,0 UV-I 0 W/m 7,7 km/h (2 Bft)
21.12.2013 16:44 7,3 C 5,6 C 70 % 1021,6 hPa 0,0 l/m 0 min 0 min 0,0 UV-I 0 W/m 30,9 km/h (5 Bft)
21.12.2013 16:46 7,3 C 5,6 C 70 % 1021,6 hPa 0,0 l/m 0 min 0 min 0,0 UV-I 0 W/m 12,9 km/h (3 Bft)
21.12.2013 16:48 7,3 C 5,6 C 70 % 1021,6 hPa 0,0 l/m 0 min 0 min 0,0 UV-I 0 W/m 15,4 km/h (3 Bft)
21.12.2013 16:50 7,3 C 5,6 C 70 % 1021,5 hPa 0,0 l/m 0 min 0 min 0,0 UV-I 0 W/m 15,4 km/h (3 Bft)
21.12.2013 16:52 7,2 C 5,6 C 70 % 1021,5 hPa 0,0 l/m 0 min 0 min 0,0 UV-I 0 W/m 12,9 km/h (3 Bft)
21.12.2013 16:54 7,2 C 5,6 C 70 % 1021,3 hPa 0,0 l/m 0 min 0 min 0,0 UV-I 0 W/m 15,4 km/h (3 Bft)
21.12.2013 16:56 7,2 C 5,6 C 70 % 1021,3 hPa 0,0 l/m 0 min 0 min 0,0 UV-I 0 W/m 10,3 km/h (2 Bft)
21.12.2013 16:58 7,2 C 5,6 C 71 % 1021,3 hPa 0,0 l/m 0 min 0 min 0,0 UV-I 0 W/m 15,4 km/h (3 Bft)
21.12.2013 17:00 7,2 C 5,6 C 71 % 1021,3 hPa 0,0 l/m 0 min 0 min 0,0 UV-I 0 W/m 23,2 km/h (4 Bft)
21.12.2013 17:02 7,2 C 5,6 C 70 % 1021,2 hPa 0,0 l/m 0 min 0 min 0,0 UV-I 0 W/m 25,7 km/h (4 Bft)
21.12.2013 17:06 7,2 C 5,0 C 71 % 1021,2 hPa 0,0 l/m 0 min 0 min 0,0 UV-I 0 W/m 18,0 km/h (3 Bft)
21.12.2013 17:08 7,1 C 5,0 C 71 % 1021,2 hPa 0,0 l/m 0 min 0 min 0,0 UV-I 0 W/m 7,7 km/h (2 Bft)
21.12.2013 17:10 7,1 C 5,6 C 71 % 1021,1 hPa 0,0 l/m 0 min 0 min 0,0 UV-I 0 W/m 25,7 km/h (4 Bft)
21.12.2013 17:12 7,1 C 5,0 C 71 % 1021,2 hPa 0,0 l/m 0 min 0 min 0,0 UV-I 0 W/m 15,4 km/h (3 Bft)
21.12.2013 17:14 7,1 C 5,0 C 71 % 1021,1 hPa 0,0 l/m 0 min 0 min 0,0 UV-I 0 W/m 18,0 km/h (3 Bft)
21.12.2013 17:16 7,1 C 5,0 C 71 % 1021,1 hPa 0,0 l/m 0 min 0 min 0,0 UV-I 0 W/m 23,2 km/h (4 Bft)
21.12.2013 17:18 7,1 C 5,0 C 71 % 1021,0 hPa 0,0 l/m 0 min 0 min 0,0 UV-I 0 W/m 10,3 km/h (2 Bft)
21.12.2013 17:20 7,1 C 5,0 C 71 % 1021,1 hPa 0,0 l/m 0 min 0 min 0,0 UV-I 0 W/m 23,2 km/h (4 Bft)
21.12.2013 17:22 7,1 C 5,0 C 71 % 1021,0 hPa 0,0 l/m 0 min 0 min 0,0 UV-I 0 W/m 23,2 km/h (4 Bft)
21.12.2013 17:24 7,0 C 5,0 C 71 % 1021,0 hPa 0,0 l/m 0 min 0 min 0,0 UV-I 0 W/m 20,6 km/h (4 Bft)
21.12.2013 17:26 7,0 C 5,0 C 71 % 1021,0 hPa 0,0 l/m 0 min 0 min 0,0 UV-I 0 W/m 15,4 km/h (3 Bft)
21.12.2013 17:28 7,0 C 5,0 C 71 % 1020,9 hPa 0,0 l/m 0 min 0 min 0,0 UV-I 0 W/m 10,3 km/h (2 Bft)
21.12.2013 17:30 7,0 C 5,0 C 71 % 1020,9 hPa 0,0 l/m 0 min 0 min 0,0 UV-I 0 W/m 25,7 km/h (4 Bft)
21.12.2013 17:32 7,0 C 5,0 C 71 % 1021,1 hPa 0,0 l/m 0 min 0 min 0,0 UV-I 0 W/m 18,0 km/h (3 Bft)
21.12.2013 17:34 6,9 C 5,0 C 71 % 1021,0 hPa 0,0 l/m 0 min 0 min 0,0 UV-I 0 W/m 23,2 km/h (4 Bft)
21.12.2013 17:36 6,9 C 5,0 C 71 % 1020,9 hPa 0,0 l/m 0 min 0 min 0,0 UV-I 0 W/m 18,0 km/h (3 Bft)
21.12.2013 17:38 6,9 C 5,0 C 71 % 1020,9 hPa 0,0 l/m 0 min 0 min 0,0 UV-I 0 W/m 5,1 km/h (1 Bft)
21.12.2013 17:40 6,9 C 5,0 C 71 % 1020,9 hPa 0,0 l/m 0 min 0 min 0,0 UV-I 0 W/m 10,3 km/h (2 Bft)
21.12.2013 17:42 6,9 C 5,0 C 71 % 1020,8 hPa 0,0 l/m 0 min 0 min 0,0 UV-I 0 W/m 18,0 km/h (3 Bft)
21.12.2013 17:44 6,8 C 5,0 C 71 % 1020,8 hPa 0,0 l/m 0 min 0 min 0,0 UV-I 0 W/m 7,7 km/h (2 Bft)
21.12.2013 17:46 6,8 C 5,0 C 71 % 1020,8 hPa 0,0 l/m 0 min 0 min 0,0 UV-I 0 W/m 18,0 km/h (3 Bft)
21.12.2013 17:48 6,8 C 5,0 C 72 % 1020,8 hPa 0,0 l/m 0 min 0 min 0,0 UV-I 0 W/m 12,9 km/h (3 Bft)
21.12.2013 17:50 6,8 C 5,0 C 72 % 1020,7 hPa 0,0 l/m 0 min 0 min 0,0 UV-I 0 W/m 15,4 km/h (3 Bft)
21.12.2013 17:52 6,8 C 5,0 C 72 % 1020,7 hPa 0,0 l/m 0 min 0 min 0,0 UV-I 0 W/m 23,2 km/h (4 Bft)
21.12.2013 17:54 6,7 C 5,0 C 72 % 1020,6 hPa 0,0 l/m 0 min 0 min 0,0 UV-I 0 W/m 15,4 km/h (3 Bft)
21.12.2013 17:56 6,7 C 5,0 C 72 % 1020,7 hPa 0,0 l/m 0 min 0 min 0,0 UV-I 0 W/m 18,0 km/h (3 Bft)
21.12.2013 17:58 6,7 C 5,0 C 72 % 1020,6 hPa 0,0 l/m 0 min 0 min 0,0 UV-I 0 W/m 15,4 km/h (3 Bft)
21.12.2013 18:00 6,7 C 5,0 C 72 % 1020,5 hPa 0,0 l/m 0 min 0 min 0,0 UV-I 0 W/m 7,7 km/h (2 Bft)
21.12.2013 18:02 6,7 C 5,0 C 72 % 1020,5 hPa 0,0 l/m 0 min 0 min 0,0 UV-I 0 W/m 20,6 km/h (4 Bft)
21.12.2013 18:06 6,7 C 5,0 C 72 % 1020,4 hPa 0,0 l/m 0 min 0 min 0,0 UV-I 0 W/m 15,4 km/h (3 Bft)
21.12.2013 18:08 6,7 C 5,0 C 72 % 1020,3 hPa 0,0 l/m 0 min 0 min 0,0 UV-I 0 W/m 28,3 km/h (4 Bft)
21.12.2013 18:10 6,7 C 5,0 C 72 % 1020,3 hPa 0,0 l/m 0 min 0 min 0,0 UV-I 0 W/m 12,9 km/h (3 Bft)
21.12.2013 18:12 6,7 C 5,0 C 73 % 1020,3 hPa 0,0 l/m 0 min 0 min 0,0 UV-I 0 W/m 25,7 km/h (4 Bft)
21.12.2013 18:14 6,7 C 5,0 C 73 % 1020,3 hPa 0,0 l/m 0 min 0 min 0,0 UV-I 0 W/m 25,7 km/h (4 Bft)
21.12.2013 18:16 6,7 C 5,0 C 73 % 1020,2 hPa 0,0 l/m 0 min 0 min 0,0 UV-I 0 W/m 23,2 km/h (4 Bft)
21.12.2013 18:18 6,7 C 5,0 C 73 % 1020,2 hPa 0,0 l/m 0 min 0 min 0,0 UV-I 0 W/m 30,9 km/h (5 Bft)
21.12.2013 18:20 6,7 C 5,0 C 73 % 1020,0 hPa 0,0 l/m 0 min 0 min 0,0 UV-I 0 W/m 18,0 km/h (3 Bft)
21.12.2013 18:22 6,7 C 5,0 C 73 % 1020,0 hPa 0,0 l/m 0 min 0 min 0,0 UV-I 0 W/m 15,4 km/h (3 Bft)
21.12.2013 18:24 6,7 C 5,0 C 73 % 1020,1 hPa 0,0 l/m 0 min 0 min 0,0 UV-I 0 W/m 18,0 km/h (3 Bft)
21.12.2013 18:26 6,7 C 5,0 C 73 % 1020,0 hPa 0,0 l/m 0 min 0 min 0,0 UV-I 0 W/m 28,3 km/h (4 Bft)
21.12.2013 18:28 6,7 C 5,0 C 73 % 1020,0 hPa 0,0 l/m 0 min 0 min 0,0 UV-I 0 W/m 23,2 km/h (4 Bft)
21.12.2013 18:30 6,7 C 5,0 C 73 % 1020,1 hPa 0,0 l/m 0 min 0 min 0,0 UV-I 0 W/m 20,6 km/h (4 Bft)
21.12.2013 18:32 6,7 C 5,0 C 73 % 1020,0 hPa 0,0 l/m 0 min 0 min 0,0 UV-I 0 W/m 20,6 km/h (4 Bft)
21.12.2013 18:34 6,7 C 5,0 C 73 % 1019,9 hPa 0,0 l/m 0 min 0 min 0,0 UV-I 0 W/m 20,6 km/h (4 Bft)
21.12.2013 18:36 6,7 C 5,0 C 73 % 1019,8 hPa 0,0 l/m 0 min 0 min 0,0 UV-I 0 W/m 25,7 km/h (4 Bft)
21.12.2013 18:38 6,7 C 5,0 C 73 % 1019,9 hPa 0,0 l/m 0 min 0 min 0,0 UV-I 0 W/m 12,9 km/h (3 Bft)
21.12.2013 18:40 6,7 C 5,0 C 73 % 1019,9 hPa 0,0 l/m 0 min 0 min 0,0 UV-I 0 W/m 2,6 km/h (1 Bft)
21.12.2013 18:42 6,7 C 5,0 C 73 % 1019,9 hPa 0,0 l/m 0 min 0 min 0,0 UV-I 0 W/m 7,7 km/h (2 Bft)
21.12.2013 18:44 6,7 C 5,0 C 73 % 1019,9 hPa 0,0 l/m 0 min 0 min 0,0 UV-I 0 W/m 28,3 km/h (4 Bft)
21.12.2013 18:46 6,7 C 5,0 C 72 % 1019,8 hPa 0,0 l/m 0 min 0 min 0,0 UV-I 0 W/m 15,4 km/h (3 Bft)
21.12.2013 18:48 6,7 C 5,0 C 72 % 1019,8 hPa 0,0 l/m 0 min 0 min 0,0 UV-I 0 W/m 18,0 km/h (3 Bft)
21.12.2013 18:50 6,7 C 5,0 C 72 % 1019,7 hPa 0,0 l/m 0 min 0 min 0,0 UV-I 0 W/m 18,0 km/h (3 Bft)
21.12.2013 18:52 6,7 C 5,0 C 72 % 1019,7 hPa 0,0 l/m 0 min 0 min 0,0 UV-I 0 W/m 33,5 km/h (5 Bft)
21.12.2013 18:54 6,7 C 5,0 C 72 % 1019,8 hPa 0,0 l/m 0 min 0 min 0,0 UV-I 0 W/m 12,9 km/h (3 Bft)
21.12.2013 18:56 6,7 C 5,0 C 72 % 1019,6 hPa 0,0 l/m 0 min 0 min 0,0 UV-I 0 W/m 18,0 km/h (3 Bft)
21.12.2013 18:58 6,7 C 5,0 C 72 % 1019,7 hPa 0,0 l/m 0 min 0 min 0,0 UV-I 0 W/m 25,7 km/h (4 Bft)
21.12.2013 19:00 6,8 C 5,6 C 71 % 1019,5 hPa 0,0 l/m 0 min 0 min 0,0 UV-I 0 W/m 12,9 km/h (3 Bft)
21.12.2013 19:02 6,8 C 5,0 C 71 % 1019,5 hPa 0,0 l/m 0 min 0 min 0,0 UV-I 0 W/m 10,3 km/h (2 Bft)
21.12.2013 19:06 6,8 C 5,6 C 71 % 1019,5 hPa 0,0 l/m 0 min 0 min 0,0 UV-I 0 W/m 28,3 km/h (4 Bft)
21.12.2013 19:08 6,8 C 5,0 C 71 % 1019,5 hPa 0,0 l/m 0 min 0 min 0,0 UV-I 0 W/m 20,6 km/h (4 Bft)
21.12.2013 19:10 6,8 C 5,0 C 71 % 1019,5 hPa 0,0 l/m 0 min 0 min 0,0 UV-I 0 W/m 25,7 km/h (4 Bft)
21.12.2013 19:12 6,8 C 5,0 C 71 % 1019,5 hPa 0,0 l/m 0 min 0 min 0,0 UV-I 0 W/m 30,9 km/h (5 Bft)
21.12.2013 19:14 6,8 C 5,0 C 70 % 1019,4 hPa 0,0 l/m 0 min 0 min 0,0 UV-I 0 W/m 23,2 km/h (4 Bft)
21.12.2013 19:16 6,8 C 5,0 C 70 % 1019,4 hPa 0,0 l/m 0 min 0 min 0,0 UV-I 0 W/m 12,9 km/h (3 Bft)
21.12.2013 19:18 6,8 C 5,0 C 70 % 1019,4 hPa 0,0 l/m 0 min 0 min 0,0 UV-I 0 W/m 15,4 km/h (3 Bft)
21.12.2013 19:20 6,8 C 5,0 C 70 % 1019,4 hPa 0,0 l/m 0 min 0 min 0,0 UV-I 0 W/m 7,7 km/h (2 Bft)
21.12.2013 19:22 6,8 C 5,0 C 70 % 1019,3 hPa 0,0 l/m 0 min 0 min 0,0 UV-I 0 W/m 23,2 km/h (4 Bft)
21.12.2013 19:24 6,8 C 5,0 C 69 % 1019,2 hPa 0,0 l/m 0 min 0 min 0,0 UV-I 0 W/m 23,2 km/h (4 Bft)
21.12.2013 19:26 6,8 C 5,0 C 69 % 1019,2 hPa 0,0 l/m 0 min 0 min 0,0 UV-I 0 W/m 20,6 km/h (4 Bft)
21.12.2013 19:28 6,8 C 5,0 C 69 % 1019,2 hPa 0,0 l/m 0 min 0 min 0,0 UV-I 0 W/m 18,0 km/h (3 Bft)
21.12.2013 19:30 6,8 C 5,0 C 69 % 1019,1 hPa 0,0 l/m 0 min 0 min 0,0 UV-I 0 W/m 7,7 km/h (2 Bft)
21.12.2013 19:32 6,7 C 5,0 C 69 % 1018,9 hPa 0,0 l/m 0 min 0 min 0,0 UV-I 0 W/m 20,6 km/h (4 Bft)
21.12.2013 19:34 6,7 C 5,0 C 69 % 1019,0 hPa 0,0 l/m 0 min 0 min 0,0 UV-I 0 W/m 12,9 km/h (3 Bft)
21.12.2013 19:36 6,7 C 5,0 C 69 % 1019,0 hPa 0,0 l/m 0 min 0 min 0,0 UV-I 0 W/m 18,0 km/h (3 Bft)
21.12.2013 19:38 6,7 C 5,0 C 69 % 1019,0 hPa 0,0 l/m 0 min 0 min 0,0 UV-I 0 W/m 12,9 km/h (3 Bft)
21.12.2013 19:40 6,7 C 5,0 C 69 % 1018,9 hPa 0,0 l/m 0 min 0 min 0,0 UV-I 0 W/m 28,3 km/h (4 Bft)
21.12.2013 19:42 6,7 C 5,0 C 69 % 1018,9 hPa 0,0 l/m 0 min 0 min 0,0 UV-I 0 W/m 18,0 km/h (3 Bft)
21.12.2013 19:44 6,7 C 5,0 C 69 % 1018,9 hPa 0,0 l/m 0 min 0 min 0,0 UV-I 0 W/m 12,9 km/h (3 Bft)
21.12.2013 19:46 6,7 C 5,0 C 69 % 1018,9 hPa 0,0 l/m 0 min 0 min 0,0 UV-I 0 W/m 10,3 km/h (2 Bft)
21.12.2013 19:48 6,6 C 5,0 C 70 % 1018,7 hPa 0,0 l/m 0 min 0 min 0,0 UV-I 0 W/m 15,4 km/h (3 Bft)
21.12.2013 19:50 6,6 C 4,4 C 70 % 1018,7 hPa 0,0 l/m 0 min 0 min 0,0 UV-I 0 W/m 10,3 km/h (2 Bft)
21.12.2013 19:52 6,6 C 4,4 C 70 % 1018,7 hPa 0,0 l/m 0 min 0 min 0,0 UV-I 0 W/m 10,3 km/h (2 Bft)
21.12.2013 19:54 6,5 C 4,4 C 70 % 1018,6 hPa 0,0 l/m 0 min 0 min 0,0 UV-I 0 W/m 10,3 km/h (2 Bft)
21.12.2013 19:56 6,4 C 4,4 C 70 % 1018,6 hPa 0,0 l/m 0 min 0 min 0,0 UV-I 0 W/m 18,0 km/h (3 Bft)
21.12.2013 19:58 6,4 C 4,4 C 70 % 1018,5 hPa 0,0 l/m 0 min 0 min 0,0 UV-I 0 W/m 15,4 km/h (3 Bft)
21.12.2013 20:00 6,4 C 4,4 C 70 % 1018,5 hPa 0,0 l/m 0 min 0 min 0,0 UV-I 0 W/m 12,9 km/h (3 Bft)
21.12.2013 20:02 6,4 C 4,4 C 70 % 1018,5 hPa 0,0 l/m 0 min 0 min 0,0 UV-I 0 W/m 10,3 km/h (2 Bft)
21.12.2013 20:06 6,3 C 4,4 C 71 % 1018,5 hPa 0,0 l/m 0 min 0 min 0,0 UV-I 0 W/m 12,9 km/h (3 Bft)
21.12.2013 20:08 6,2 C 4,4 C 71 % 1018,5 hPa 0,0 l/m 0 min 0 min 0,0 UV-I 0 W/m 10,3 km/h (2 Bft)
21.12.2013 20:10 6,2 C 4,4 C 71 % 1018,4 hPa 0,0 l/m 0 min 0 min 0,0 UV-I 0 W/m 5,1 km/h (1 Bft)
21.12.2013 20:12 6,2 C 4,4 C 71 % 1018,4 hPa 0,0 l/m 0 min 0 min 0,0 UV-I 0 W/m 20,6 km/h (4 Bft)
21.12.2013 20:14 6,1 C 4,4 C 71 % 1018,4 hPa 0,0 l/m 0 min 0 min 0,0 UV-I 0 W/m 15,4 km/h (3 Bft)
21.12.2013 20:16 6,1 C 4,4 C 71 % 1018,4 hPa 0,0 l/m 0 min 0 min 0,0 UV-I 0 W/m 7,7 km/h (2 Bft)
21.12.2013 20:18 6,1 C 4,4 C 71 % 1018,4 hPa 0,0 l/m 0 min 0 min 0,0 UV-I 0 W/m 12,9 km/h (3 Bft)
21.12.2013 20:20 6,1 C 4,4 C 71 % 1018,5 hPa 0,0 l/m 0 min 0 min 0,0 UV-I 0 W/m 12,9 km/h (3 Bft)
21.12.2013 20:22 6,0 C 4,4 C 71 % 1018,5 hPa 0,0 l/m 0 min 0 min 0,0 UV-I 0 W/m 18,0 km/h (3 Bft)
21.12.2013 20:24 6,0 C 4,4 C 71 % 1018,4 hPa 0,0 l/m 0 min 0 min 0,0 UV-I 0 W/m 10,3 km/h (2 Bft)
21.12.2013 20:26 6,0 C 4,4 C 71 % 1018,4 hPa 0,0 l/m 0 min 0 min 0,0 UV-I 0 W/m 28,3 km/h (4 Bft)
21.12.2013 20:28 6,0 C 4,4 C 70 % 1018,4 hPa 0,0 l/m 0 min 0 min 0,0 UV-I 0 W/m 12,9 km/h (3 Bft)
21.12.2013 20:30 6,0 C 4,4 C 70 % 1018,4 hPa 0,0 l/m 0 min 0 min 0,0 UV-I 0 W/m 15,4 km/h (3 Bft)
21.12.2013 20:32 6,0 C 4,4 C 70 % 1018,3 hPa 0,0 l/m 0 min 0 min 0,0 UV-I 0 W/m 10,3 km/h (2 Bft)
21.12.2013 20:34 6,1 C 5,0 C 70 % 1018,3 hPa 0,0 l/m 0 min 0 min 0,0 UV-I 0 W/m 12,9 km/h (3 Bft)
21.12.2013 20:36 6,1 C 5,0 C 69 % 1018,3 hPa 0,0 l/m 0 min 0 min 0,0 UV-I 0 W/m 25,7 km/h (4 Bft)
21.12.2013 20:38 6,2 C 5,0 C 69 % 1018,2 hPa 0,0 l/m 0 min 0 min 0,0 UV-I 0 W/m 12,9 km/h (3 Bft)
21.12.2013 20:40 6,2 C 5,0 C 68 % 1018,2 hPa 0,0 l/m 0 min 0 min 0,0 UV-I 0 W/m 12,9 km/h (3 Bft)
21.12.2013 20:42 6,3 C 5,0 C 68 % 1018,2 hPa 0,0 l/m 0 min 0 min 0,0 UV-I 0 W/m 28,3 km/h (4 Bft)
21.12.2013 20:44 6,3 C 5,0 C 68 % 1018,2 hPa 0,0 l/m 0 min 0 min 0,0 UV-I 0 W/m 15,4 km/h (3 Bft)
21.12.2013 20:46 6,4 C 5,0 C 68 % 1018,1 hPa 0,0 l/m 0 min 0 min 0,0 UV-I 0 W/m 15,4 km/h (3 Bft)
21.12.2013 20:48 6,4 C 5,0 C 68 % 1018,0 hPa 0,0 l/m 0 min 0 min 0,0 UV-I 0 W/m 18,0 km/h (3 Bft)
21.12.2013 20:50 6,4 C 5,0 C 67 % 1018,0 hPa 0,0 l/m 0 min 0 min 0,0 UV-I 0 W/m 25,7 km/h (4 Bft)
21.12.2013 20:52 6,5 C 5,0 C 67 % 1018,0 hPa 0,0 l/m 0 min 2 min 0,0 UV-I 0 W/m 12,9 km/h (3 Bft)
21.12.2013 20:54 6,5 C 4,4 C 68 % 1017,8 hPa 0,0 l/m 0 min 0 min 0,0 UV-I 0 W/m 23,2 km/h (4 Bft)
21.12.2013 20:56 6,6 C 4,4 C 67 % 1017,8 hPa 0,0 l/m 0 min 0 min 0,0 UV-I 0 W/m 20,6 km/h (4 Bft)
21.12.2013 20:58 6,6 C 4,4 C 68 % 1017,9 hPa 0,0 l/m 0 min 0 min 0,0 UV-I 0 W/m 20,6 km/h (4 Bft)
21.12.2013 21:00 6,6 C 5,0 C 68 % 1017,8 hPa 0,0 l/m 0 min 0 min 0,0 UV-I 0 W/m 15,4 km/h (3 Bft)
21.12.2013 21:02 6,6 C 5,0 C 68 % 1017,8 hPa 0,0 l/m 0 min 0 min 0,0 UV-I 0 W/m 23,2 km/h (4 Bft)
21.12.2013 21:04 6,6 C 5,0 C 68 % 1017,9 hPa 0,0 l/m 0 min 0 min 0,0 UV-I 0 W/m 7,7 km/h (2 Bft)
21.12.2013 21:06 6,6 C 5,0 C 68 % 1017,7 hPa 0,0 l/m 0 min 0 min 0,0 UV-I 0 W/m 7,7 km/h (2 Bft)
21.12.2013 21:08 6,6 C 5,0 C 68 % 1017,7 hPa 0,0 l/m 0 min 0 min 0,0 UV-I 0 W/m 15,4 km/h (3 Bft)
21.12.2013 21:10 6,6 C 5,0 C 68 % 1017,6 hPa 0,0 l/m 0 min 0 min 0,0 UV-I 0 W/m 18,0 km/h (3 Bft)
21.12.2013 21:12 6,6 C 5,0 C 68 % 1017,6 hPa 0,0 l/m 0 min 0 min 0,0 UV-I 0 W/m 12,9 km/h (3 Bft)
21.12.2013 21:14 6,6 C 5,0 C 68 % 1017,6 hPa 0,0 l/m 0 min 0 min 0,0 UV-I 0 W/m 20,6 km/h (4 Bft)
21.12.2013 21:16 6,6 C 5,0 C 68 % 1017,6 hPa 0,0 l/m 0 min 0 min 0,0 UV-I 0 W/m 10,3 km/h (2 Bft)
21.12.2013 21:18 6,6 C 5,0 C 68 % 1017,6 hPa 0,0 l/m 0 min 0 min 0,0 UV-I 0 W/m 15,4 km/h (3 Bft)
21.12.2013 21:20 6,6 C 5,0 C 68 % 1017,5 hPa 0,0 l/m 0 min 0 min 0,0 UV-I 0 W/m 20,6 km/h (4 Bft)
21.12.2013 21:22 6,6 C 5,0 C 68 % 1017,5 hPa 0,0 l/m 0 min 0 min 0,0 UV-I 0 W/m 20,6 km/h (4 Bft)
21.12.2013 21:24 6,6 C 5,0 C 68 % 1017,4 hPa 0,0 l/m 0 min 0 min 0,0 UV-I 0 W/m 18,0 km/h (3 Bft)
21.12.2013 21:26 6,7 C 5,0 C 67 % 1017,4 hPa 0,0 l/m 0 min 0 min 0,0 UV-I 0 W/m 20,6 km/h (4 Bft)
21.12.2013 21:28 6,7 C 5,0 C 67 % 1017,5 hPa 0,0 l/m 0 min 0 min 0,0 UV-I 0 W/m 12,9 km/h (3 Bft)
21.12.2013 21:30 6,7 C 5,0 C 67 % 1017,3 hPa 0,0 l/m 0 min 0 min 0,0 UV-I 0 W/m 18,0 km/h (3 Bft)
21.12.2013 21:32 6,7 C 5,0 C 67 % 1017,3 hPa 0,0 l/m 0 min 0 min 0,0 UV-I 0 W/m 20,6 km/h (4 Bft)
21.12.2013 21:34 6,7 C 5,6 C 67 % 1017,2 hPa 0,0 l/m 0 min 0 min 0,0 UV-I 0 W/m 12,9 km/h (3 Bft)
21.12.2013 21:36 6,7 C 5,6 C 67 % 1017,2 hPa 0,0 l/m 0 min 0 min 0,0 UV-I 0 W/m 12,9 km/h (3 Bft)
21.12.2013 21:38 6,7 C 5,6 C 67 % 1017,3 hPa 0,0 l/m 0 min 0 min 0,0 UV-I 0 W/m 18,0 km/h (3 Bft)
21.12.2013 21:40 6,7 C 5,0 C 67 % 1017,2 hPa 0,0 l/m 0 min 2 min 0,0 UV-I 0 W/m 10,3 km/h (2 Bft)
21.12.2013 21:42 6,8 C 5,0 C 67 % 1017,2 hPa 0,0 l/m 0 min 0 min 0,0 UV-I 0 W/m 28,3 km/h (4 Bft)
21.12.2013 21:44 6,8 C 5,0 C 66 % 1017,2 hPa 0,0 l/m 0 min 0 min 0,0 UV-I 0 W/m 25,7 km/h (4 Bft)
21.12.2013 21:46 6,8 C 5,6 C 65 % 1017,2 hPa 0,0 l/m 0 min 0 min 0,0 UV-I 0 W/m 25,7 km/h (4 Bft)
21.12.2013 21:48 6,8 C 5,6 C 65 % 1017,2 hPa 0,0 l/m 0 min 0 min 0,0 UV-I 0 W/m 0,0 km/h (0 Bft)
21.12.2013 21:50 6,9 C 5,6 C 64 % 1017,1 hPa 0,0 l/m 0 min 0 min 0,0 UV-I 0 W/m 23,2 km/h (4 Bft)
21.12.2013 21:52 6,9 C 5,6 C 64 % 1017,3 hPa 0,0 l/m 0 min 0 min 0,0 UV-I 0 W/m 20,6 km/h (4 Bft)
21.12.2013 21:54 6,9 C 5,6 C 64 % 1017,1 hPa 0,0 l/m 0 min 0 min 0,0 UV-I 0 W/m 7,7 km/h (2 Bft)
21.12.2013 21:56 7,0 C 5,6 C 64 % 1017,2 hPa 0,0 l/m 0 min 0 min 0,0 UV-I 0 W/m 15,4 km/h (3 Bft)
21.12.2013 21:58 7,0 C 5,6 C 64 % 1017,1 hPa 0,0 l/m 0 min 0 min 0,0 UV-I 0 W/m 10,3 km/h (2 Bft)
21.12.2013 22:00 7,1 C 5,6 C 63 % 1017,1 hPa 0,0 l/m 0 min 0 min 0,0 UV-I 0 W/m 10,3 km/h (2 Bft)
21.12.2013 22:02 7,1 C 5,6 C 63 % 1017,2 hPa 0,0 l/m 0 min 0 min 0,0 UV-I 0 W/m 12,9 km/h (3 Bft)
21.12.2013 22:06 7,1 C 5,6 C 63 % 1017,1 hPa 0,0 l/m 0 min 0 min 0,0 UV-I 0 W/m 7,7 km/h (2 Bft)
21.12.2013 22:08 7,1 C 5,6 C 62 % 1017,0 hPa 0,0 l/m 0 min 0 min 0,0 UV-I 0 W/m 15,4 km/h (3 Bft)
21.12.2013 22:10 7,2 C 5,6 C 62 % 1017,0 hPa 0,0 l/m 0 min 0 min 0,0 UV-I 0 W/m 10,3 km/h (2 Bft)
21.12.2013 22:12 7,2 C 5,6 C 62 % 1016,9 hPa 0,0 l/m 0 min 0 min 0,0 UV-I 0 W/m 12,9 km/h (3 Bft)
21.12.2013 22:14 7,2 C 5,6 C 63 % 1016,9 hPa 0,0 l/m 0 min 0 min 0,0 UV-I 0 W/m 7,7 km/h (2 Bft)
21.12.2013 22:16 7,2 C 5,6 C 62 % 1016,9 hPa 0,0 l/m 0 min 0 min 0,0 UV-I 0 W/m 18,0 km/h (3 Bft)
21.12.2013 22:18 7,2 C 5,6 C 62 % 1016,9 hPa 0,0 l/m 0 min 0 min 0,0 UV-I 0 W/m 15,4 km/h (3 Bft)
21.12.2013 22:20 7,2 C 5,6 C 62 % 1016,8 hPa 0,0 l/m 0 min 2 min 0,0 UV-I 0 W/m 18,0 km/h (3 Bft)
21.12.2013 22:22 7,2 C 5,6 C 63 % 1016,9 hPa 0,0 l/m 0 min 2 min 0,0 UV-I 0 W/m 15,4 km/h (3 Bft)
21.12.2013 22:24 7,3 C 5,6 C 63 % 1016,9 hPa 0,0 l/m 0 min 0 min 0,0 UV-I 0 W/m 15,4 km/h (3 Bft)
21.12.2013 22:26 7,3 C 5,6 C 63 % 1016,9 hPa 0,0 l/m 0 min 0 min 0,0 UV-I 0 W/m 10,3 km/h (2 Bft)
21.12.2013 22:28 7,3 C 5,6 C 63 % 1016,9 hPa 0,0 l/m 0 min 2 min 0,0 UV-I 0 W/m 23,2 km/h (4 Bft)
21.12.2013 22:30 7,3 C 5,0 C 64 % 1016,9 hPa 0,0 l/m 0 min 2 min 0,0 UV-I 0 W/m 20,6 km/h (4 Bft)
21.12.2013 22:32 7,3 C 4,4 C 64 % 1016,9 hPa 0,0 l/m 0 min 2 min 0,0 UV-I 0 W/m 18,0 km/h (3 Bft)
21.12.2013 22:34 7,3 C 4,4 C 64 % 1017,0 hPa 0,0 l/m 0 min 2 min 0,0 UV-I 0 W/m 15,4 km/h (3 Bft)
21.12.2013 22:36 7,3 C 3,9 C 64 % 1017,0 hPa 0,0 l/m 0 min 2 min 0,0 UV-I 0 W/m 23,2 km/h (4 Bft)
21.12.2013 22:38 7,3 C 4,4 C 64 % 1016,9 hPa 0,0 l/m 0 min 2 min 0,0 UV-I 0 W/m 12,9 km/h (3 Bft)
21.12.2013 22:40 7,2 C 4,4 C 65 % 1017,1 hPa 0,0 l/m 0 min 2 min 0,0 UV-I 0 W/m 10,3 km/h (2 Bft)
21.12.2013 22:42 7,2 C 4,4 C 65 % 1016,9 hPa 0,0 l/m 0 min 0 min 0,0 UV-I 0 W/m 12,9 km/h (3 Bft)
21.12.2013 22:44 7,2 C 4,4 C 65 % 1017,0 hPa 0,0 l/m 0 min 2 min 0,0 UV-I 0 W/m 20,6 km/h (4 Bft)
21.12.2013 22:46 7,2 C 5,0 C 64 % 1016,9 hPa 0,0 l/m 0 min 0 min 0,0 UV-I 0 W/m 18,0 km/h (3 Bft)
21.12.2013 22:48 7,2 C 5,0 C 64 % 1016,9 hPa 0,0 l/m 0 min 0 min 0,0 UV-I 0 W/m 23,2 km/h (4 Bft)
21.12.2013 22:50 7,2 C 5,0 C 64 % 1016,9 hPa 0,0 l/m 0 min 0 min 0,0 UV-I 0 W/m 30,9 km/h (5 Bft)
21.12.2013 22:52 7,3 C 5,6 C 65 % 1016,9 hPa 0,0 l/m 0 min 0 min 0,0 UV-I 0 W/m 7,7 km/h (2 Bft)
21.12.2013 22:54 7,3 C 5,6 C 64 % 1017,0 hPa 0,0 l/m 0 min 0 min 0,0 UV-I 0 W/m 30,9 km/h (5 Bft)
21.12.2013 22:56 7,3 C 5,6 C 64 % 1017,0 hPa 0,0 l/m 0 min 0 min 0,0 UV-I 0 W/m 15,4 km/h (3 Bft)
21.12.2013 22:58 7,3 C 5,6 C 64 % 1017,0 hPa 0,0 l/m 0 min 0 min 0,0 UV-I 0 W/m 30,9 km/h (5 Bft)
21.12.2013 23:00 7,3 C 5,6 C 64 % 1017,1 hPa 0,0 l/m 0 min 0 min 0,0 UV-I 0 W/m 12,9 km/h (3 Bft)
21.12.2013 23:02 7,3 C 5,6 C 65 % 1017,0 hPa 0,0 l/m 0 min 0 min 0,0 UV-I 0 W/m 7,7 km/h (2 Bft)
21.12.2013 23:06 7,4 C 5,6 C 65 % 1017,2 hPa 0,0 l/m 0 min 0 min 0,0 UV-I 0 W/m 30,9 km/h (5 Bft)
21.12.2013 23:08 7,4 C 5,6 C 66 % 1017,2 hPa 0,0 l/m 0 min 2 min 0,0 UV-I 0 W/m 28,3 km/h (4 Bft)
21.12.2013 23:10 7,4 C 5,0 C 68 % 1017,1 hPa 0,0 l/m 0 min 2 min 0,0 UV-I 0 W/m 10,3 km/h (2 Bft)
21.12.2013 23:12 7,3 C 4,4 C 68 % 1017,2 hPa 0,0 l/m 0 min 2 min 0,0 UV-I 0 W/m 20,6 km/h (4 Bft)
21.12.2013 23:14 7,3 C 4,4 C 69 % 1017,0 hPa 0,0 l/m 0 min 0 min 0,0 UV-I 0 W/m 7,7 km/h (2 Bft)
21.12.2013 23:16 7,3 C 4,4 C 69 % 1017,0 hPa 0,0 l/m 0 min 0 min 0,0 UV-I 0 W/m 12,9 km/h (3 Bft)
21.12.2013 23:18 7,3 C 5,0 C 69 % 1016,9 hPa 0,0 l/m 0 min 0 min 0,0 UV-I 0 W/m 15,4 km/h (3 Bft)
21.12.2013 23:20 7,2 C 5,0 C 68 % 1016,9 hPa 0,0 l/m 0 min 0 min 0,0 UV-I 0 W/m 15,4 km/h (3 Bft)
21.12.2013 23:22 7,2 C 5,0 C 68 % 1017,1 hPa 0,0 l/m 0 min 2 min 0,0 UV-I 0 W/m 18,0 km/h (3 Bft)
21.12.2013 23:24 7,2 C 5,0 C 68 % 1016,9 hPa 0,0 l/m 0 min 2 min 0,0 UV-I 0 W/m 12,9 km/h (3 Bft)
21.12.2013 23:26 7,2 C 5,0 C 69 % 1016,9 hPa 0,0 l/m 0 min 2 min 0,0 UV-I 0 W/m 18,0 km/h (3 Bft)
21.12.2013 23:28 7,2 C 4,4 C 70 % 1016,9 hPa 0,0 l/m 0 min 2 min 0,0 UV-I 0 W/m 12,9 km/h (3 Bft)
21.12.2013 23:30 7,2 C 4,4 C 71 % 1016,8 hPa 0,0 l/m 0 min 2 min 0,0 UV-I 0 W/m 15,4 km/h (3 Bft)
21.12.2013 23:32 7,2 C 4,4 C 72 % 1016,9 hPa 0,0 l/m 0 min 0 min 0,0 UV-I 0 W/m 10,3 km/h (2 Bft)
21.12.2013 23:34 7,1 C 4,4 C 72 % 1016,9 hPa 0,0 l/m 0 min 0 min 0,0 UV-I 0 W/m 15,4 km/h (3 Bft)
21.12.2013 23:36 7,1 C 4,4 C 72 % 1016,9 hPa 0,0 l/m 0 min 2 min 0,0 UV-I 0 W/m 12,9 km/h (3 Bft)
21.12.2013 23:38 7,1 C 4,4 C 73 % 1016,9 hPa 0,0 l/m 0 min 2 min 0,0 UV-I 0 W/m 23,2 km/h (4 Bft)
21.12.2013 23:40 7,0 C 4,4 C 73 % 1016,9 hPa 0,0 l/m 0 min 0 min 0,0 UV-I 0 W/m 28,3 km/h (4 Bft)
21.12.2013 23:42 7,0 C 4,4 C 73 % 1016,8 hPa 0,0 l/m 0 min 0 min 0,0 UV-I 0 W/m 15,4 km/h (3 Bft)
21.12.2013 23:44 7,0 C 4,4 C 73 % 1016,7 hPa 0,0 l/m 0 min 2 min 0,0 UV-I 0 W/m 18,0 km/h (3 Bft)
21.12.2013 23:46 6,9 C 5,0 C 73 % 1016,7 hPa 0,0 l/m 0 min 0 min 0,0 UV-I 0 W/m 18,0 km/h (3 Bft)
21.12.2013 23:48 7,0 C 5,0 C 73 % 1016,7 hPa 0,0 l/m 0 min 0 min 0,0 UV-I 0 W/m 15,4 km/h (3 Bft)
21.12.2013 23:50 7,0 C 5,0 C 74 % 1016,7 hPa 0,0 l/m 0 min 0 min 0,0 UV-I 0 W/m 18,0 km/h (3 Bft)
21.12.2013 23:52 7,0 C 5,0 C 74 % 1016,7 hPa 0,0 l/m 0 min 0 min 0,0 UV-I 0 W/m 18,0 km/h (3 Bft)
21.12.2013 23:54 7,0 C 5,6 C 74 % 1016,7 hPa 0,0 l/m 0 min 0 min 0,0 UV-I 0 W/m 25,7 km/h (4 Bft)
21.12.2013 23:56 7,0 C 5,6 C 74 % 1016,7 hPa 0,0 l/m 0 min 0 min 0,0 UV-I 0 W/m 23,2 km/h (4 Bft)
21.12.2013 23:58 7,1 C 5,6 C 74 % 1016,7 hPa 0,0 l/m 0 min 0 min 0,0 UV-I 0 W/m 18,0 km/h (3 Bft)
_ Min-Zeit 01:16 01:16 22:08 23:44 - - - - - 00:02
Minimum _ 4,2 C 2,2 C 62 % 1016,7 hPa - - - - - 0,0 km/h (0 Bft)
_ Max-Zeit 13:40 10:46 00:40 00:26 00:00 00:00 20:52 00:00 11:52 15:15
Maximum _ 8,0 C 6,7 C 88 % 1028,2 hPa 0,0 l/m 0 min 2 min 0,0 UV-I 105 W/m 41,2 km/h
S-SO (6 Bft)
Durchschnitt _ 6,7 C 5,1 C 75 % 1023,2 hPa #0,0 l/m #0 min. #46 min. 0,0 UV-I 46 W/m 17,7 km/h (3 Bft)
© 2013 W. Hausmann